GFSMA_925_thetae_000.txt.gz
Theta_e
342 347 347 347 351 348 350 347 349 349 349 348 348 348 350 350 347 349 347 346 337 335 341 345 346 345 343 344 344 341 341 340 339 340 340 341 339 337 337 338 338 339 339
347 349 348 343 347 347 345 346 347 349 348 348 348 348 350 350 347 350 349 347 345 339 344 343 343 342 345 344 341 341 341 339 338 338 339 341 340 337 337 335 337 336 335
343 346 345 346 347 347 344 344 347 347 347 349 348 348 349 349 350 349 349 347 344 342 339 345 342 340 340 344 343 341 341 340 337 337 338 339 339 339 337 338 339 337 337
347 348 347 346 345 348 345 345 345 347 346 350 349 349 349 349 349 349 350 347 347 343 343 339 339 342 342 341 346 344 341 340 339 337 338 338 338 339 338 337 337 339 336
346 346 347 346 344 343 349 345 342 344 348 348 347 347 348 349 347 350 350 347 348 349 347 339 338 341 343 342 339 343 341 337 338 338 338 339 339 339 339 338 338 337 338
344 345 347 347 344 343 345 346 344 340 344 347 345 346 347 349 351 349 348 348 348 347 346 346 342 342 341 342 337 340 341 338 338 337 338 340 341 339 339 339 338 338 337
343 344 346 346 344 346 344 345 343 343 346 346 347 346 345 346 350 349 346 346 348 348 344 345 343 342 342 342 339 339 340 340 339 338 339 340 341 341 339 339 339 339 338
342 344 343 347 345 345 345 344 344 343 344 345 346 344 347 347 350 350 349 347 345 346 346 344 343 341 342 343 340 340 340 341 339 339 340 339 339 341 340 339 339 339 339
342 343 343 343 346 346 344 344 345 344 344 345 344 344 347 352 348 346 346 347 347 347 346 344 345 345 345 344 346 341 340 340 340 340 340 339 339 339 339 339 336 339 338
343 342 343 343 344 347 344 347 344 343 342 345 343 343 346 346 348 350 344 346 345 345 346 346 345 346 344 344 345 344 341 340 339 339 339 340 339 339 339 338 338 338 338
342 342 342 342 345 347 346 345 345 344 341 340 342 342 345 346 343 345 350 347 346 344 345 345 345 345 345 344 346 344 342 341 340 341 339 339 339 338 339 339 338 338 338
342 342 342 343 344 345 345 344 344 345 340 342 343 342 344 343 343 344 345 345 345 346 345 345 346 344 344 345 345 344 344 341 340 340 340 339 339 339 339 339 338 338 337
341 341 341 343 344 345 345 344 343 340 340 341 340 343 343 342 342 341 342 344 344 344 346 346 345 343 343 343 345 345 343 342 338 339 341 340 340 341 340 339 336 338 338
340 339 342 342 343 343 343 344 344 341 341 341 342 341 343 341 340 339 340 341 343 343 342 342 343 345 344 344 343 345 343 340 338 337 338 339 341 340 339 337 338 338 338
340 342 342 342 342 343 345 342 340 342 342 341 341 340 339 342 342 343 341 341 341 342 342 340 338 338 339 339 342 343 342 343 339 338 337 338 338 337 335 332 330 328 326
340 343 343 342 342 342 343 342 343 342 340 339 336 335 331 328 340 342 341 340 340 341 341 339 341 341 339 342 344 343 341 341 338 336 336 337 336 333 330 331 331 331 331
341 340 341 343 343 341 341 342 343 340 337 334 334 337 336 331 340 341 338 340 338 337 340 339 340 337 340 341 341 340 341 340 339 338 336 336 336 336 335 334 332 331 329
340 339 340 341 340 341 341 341 340 337 336 337 337 338 338 339 340 340 334 335 338 339 338 340 339 337 337 340 337 337 331 334 336 335 334 332 329 326 326 325 323 320 319
339 339 340 340 340 337 337 338 337 335 334 334 333 334 334 334 335 335 337 337 339 339 339 337 337 339 337 338 337 332 328 324 324 320 321 322 321 320 319 317 316 314 313
339 337 337 339 339 338 336 336 337 335 333 332 332 331 330 334 333 331 331 332 333 333 335 336 336 334 334 333 335 333 328 323 322 320 320 320 317 314 312 312 312 312 313
338 334 334 335 335 334 334 334 334 333 332 331 330 330 330 333 333 333 332 332 332 333 333 334 334 334 334 335 335 332 332 330 327 320 320 319 319 319 318 318 317 316 313
337 337 336 335 335 334 334 332 332 331 329 329 329 329 328 329 327 325 326 327 328 332 334 333 334 334 330 326 324 323 324 321 323 319 317 319 320 321 320 318 317 314 312
337 336 333 332 331 331 331 331 330 330 329 328 327 326 324 320 316 319 320 318 320 324 329 331 328 324 321 321 321 321 319 319 319 317 314 314 316 316 314 315 312 309 308
332 329 326 323 324 328 331 332 332 328 324 322 323 320 321 318 321 321 318 313 314 315 318 321 320 317 316 316 315 314 313 315 315 315 315 314 312 311 310 308 308 308 307
324 322 320 318 317 319 326 327 325 322 319 315 314 312 314 315 317 317 315 311 309 309 310 309 308 308 307 307 307 313 311 311 312 312 311 310 310 310 307 306 307 308 308
320 317 314 313 314 315 319 322 320 315 311 307 306 307 310 313 316 317 317 316 314 314 313 312 311 310 310 309 309 307 308 309 308 309 309 309 308 308 308 308 308 307 306

GFSMA_925_thetae_003.txt.gz
Theta_e
347 342 347 347 347 349 350 347 350 349 348 350 349 349 348 345 347 346 347 344 342 336 341 341 343 342 344 343 342 342 340 340 342 341 341 341 339 338 338 339 339 339 335
342 341 347 344 346 345 345 346 346 348 348 348 348 348 347 347 346 346 347 345 342 337 337 340 343 343 346 343 343 341 339 344 341 339 339 340 340 337 336 335 337 338 338
343 345 344 345 344 341 342 343 345 347 347 348 348 347 348 346 347 346 346 346 345 342 337 338 339 341 343 341 340 341 340 341 338 338 338 338 339 338 337 335 337 336 337
346 344 345 344 343 342 343 342 344 346 346 348 347 348 349 349 350 347 348 348 345 344 341 339 337 340 339 339 339 343 341 341 340 337 338 338 338 338 338 337 337 337 338
345 345 345 345 344 343 343 342 344 346 345 347 349 347 349 348 348 348 348 348 346 345 342 341 340 338 341 341 340 342 338 340 341 339 337 338 338 338 338 338 337 337 338
344 343 343 346 347 344 342 345 343 341 343 346 347 347 347 348 348 347 347 348 346 346 346 344 340 339 341 342 342 340 340 337 337 339 338 338 339 339 339 339 338 337 337
343 342 342 342 345 344 342 340 344 343 339 346 346 346 346 346 342 345 346 348 347 347 346 341 345 340 341 341 342 340 339 340 340 338 338 338 340 341 340 339 339 338 338
341 342 343 343 344 344 344 343 343 343 344 345 343 343 342 344 345 347 348 347 347 347 346 344 345 344 341 339 340 340 339 339 339 340 338 339 340 341 341 339 339 339 338
339 340 341 341 343 345 344 345 343 343 342 344 343 341 341 342 345 346 348 347 346 346 345 346 343 343 342 341 339 340 339 338 339 340 339 340 340 340 340 340 339 339 339
337 340 340 341 343 345 345 344 343 342 343 342 344 343 342 344 343 343 346 346 347 347 347 345 345 343 343 343 342 343 342 338 340 339 339 340 340 340 338 340 340 336 339
338 339 341 341 342 343 344 345 343 342 342 341 341 340 341 343 343 342 342 344 347 345 345 345 345 343 342 343 344 344 343 338 339 340 339 339 340 339 339 339 338 337 337
339 340 342 342 341 342 342 345 344 343 342 340 338 339 340 342 342 343 339 340 342 344 344 345 344 343 343 343 343 344 344 341 339 339 340 340 340 340 339 339 339 338 338
341 340 341 341 342 342 342 344 344 343 343 339 339 340 340 341 341 342 343 341 342 343 344 344 344 344 343 343 344 345 344 343 341 341 340 340 340 340 341 340 340 339 338
339 339 340 340 341 342 342 342 343 343 342 339 341 340 341 340 342 343 341 340 338 340 342 343 345 344 342 342 342 344 343 343 343 339 339 341 341 341 341 340 340 337 338
338 340 341 341 342 341 340 340 341 342 339 339 339 339 342 341 341 342 341 341 340 338 338 340 342 342 343 344 344 344 342 343 340 338 337 336 338 340 338 337 333 338 339
339 341 341 341 341 341 340 339 340 341 340 340 341 340 341 342 338 339 339 340 341 339 336 339 340 340 339 341 341 342 340 340 340 338 335 335 337 337 336 332 334 332 330
338 340 341 341 340 340 340 340 340 340 340 339 338 335 334 331 335 339 338 338 338 338 337 339 340 340 339 338 338 338 338 338 339 337 336 335 337 336 332 333 335 334 332
339 338 340 341 340 340 340 341 340 339 337 336 339 339 338 335 338 337 338 338 338 338 338 339 339 338 335 339 336 333 339 338 338 338 337 337 336 336 334 331 327 324 320
339 339 339 339 338 338 339 338 337 336 336 335 335 335 334 336 335 334 332 334 334 336 337 338 338 337 335 336 333 331 330 330 329 330 327 325 325 325 324 323 321 319 317
337 340 339 336 335 336 335 334 333 333 332 331 331 331 333 333 331 331 329 328 330 330 334 335 335 334 333 333 329 327 322 320 320 321 322 319 317 315 314 313 313 313 313
334 335 336 335 334 334 334 334 334 333 333 332 331 330 330 333 332 331 330 329 327 331 332 334 334 333 332 333 333 331 324 323 320 318 320 318 317 315 314 315 316 315 313
335 335 334 334 333 333 333 332 331 330 329 330 329 329 329 328 327 328 326 327 327 328 332 331 333 329 325 325 324 325 329 325 321 317 318 320 319 319 317 317 316 313 310
335 332 330 330 330 332 331 330 330 328 327 326 325 323 322 320 320 320 321 323 325 328 330 331 325 320 317 318 320 319 319 319 318 315 314 313 317 318 318 317 314 309 307
328 326 323 324 327 330 332 331 325 323 323 322 322 318 317 318 319 314 314 312 311 313 317 321 318 313 313 312 314 313 315 315 315 313 314 314 311 309 308 307 307 306 307
322 320 318 319 324 326 328 329 324 319 317 314 313 315 317 317 315 312 310 312 311 311 311 310 310 310 309 309 309 313 310 311 311 311 309 309 309 309 307 306 306 307 308
317 316 314 313 316 320 320 321 321 315 310 310 312 313 315 317 315 315 314 313 313 312 311 311 310 309 309 308 308 308 307 308 307 309 307 308 308 307 307 307 307 307 307

GFSMA_925_thetae_006.txt.gz
Theta_e
349 347 343 345 345 347 344 347 349 347 346 346 349 348 348 343 345 347 341 344 343 340 339 343 342 339 341 342 342 341 342 341 341 339 342 340 339 339 339 339 339 336 334
341 346 343 341 343 344 342 344 345 348 348 347 349 348 347 345 344 346 345 345 343 340 338 342 342 342 341 342 341 342 342 343 341 340 340 340 337 339 339 338 340 340 336
345 342 340 341 342 344 345 342 345 345 347 348 347 347 347 347 346 346 344 346 343 342 339 339 343 343 341 346 343 342 340 340 341 339 339 338 338 339 338 336 338 338 338
348 344 343 344 343 343 342 340 342 344 347 347 347 348 347 346 345 345 344 346 345 343 341 338 341 341 342 345 346 344 340 340 340 339 338 338 339 338 337 336 337 339 336
346 346 345 344 343 343 342 343 342 344 345 345 347 347 348 347 347 346 346 346 347 346 344 342 339 339 338 339 341 343 342 338 340 340 338 337 338 338 338 338 337 338 337
345 344 343 343 344 344 343 343 342 344 344 345 347 348 348 347 347 346 347 348 348 347 346 343 341 341 340 338 339 340 340 338 337 340 339 338 338 338 338 338 338 337 337
344 343 341 341 341 345 344 341 342 342 343 344 346 346 346 347 347 347 347 348 347 347 345 345 343 342 341 338 340 340 340 340 338 338 337 339 338 338 338 339 338 338 337
343 341 342 341 340 342 344 342 343 343 342 340 344 342 341 343 344 343 346 347 347 347 346 346 345 343 343 339 340 341 340 340 339 338 340 338 338 338 340 340 339 338 338
340 339 339 340 340 341 344 343 341 343 342 342 343 340 340 340 342 345 346 348 347 347 346 346 346 343 343 341 341 340 340 340 339 339 340 339 339 339 339 340 340 338 338
339 338 339 340 340 340 343 343 343 342 342 343 344 343 342 342 340 339 341 344 346 347 346 345 345 345 343 344 343 341 341 339 340 338 339 340 339 339 340 339 340 339 339
339 338 337 339 340 340 341 343 343 344 342 342 342 342 343 342 341 340 341 340 342 343 346 347 346 345 344 343 343 343 341 340 340 339 339 339 338 339 339 339 339 338 339
340 338 338 340 341 341 342 342 344 343 343 342 341 340 340 342 341 341 340 340 340 341 343 345 345 346 345 343 343 342 344 343 344 339 338 339 339 336 337 337 339 338 337
341 339 339 341 342 342 342 342 342 343 343 342 341 339 339 340 341 339 340 340 339 341 344 344 343 344 344 343 343 343 342 344 343 341 340 339 340 338 336 338 339 339 338
339 339 339 340 341 342 341 341 342 343 344 342 341 338 339 340 340 337 341 340 337 338 342 343 342 343 343 343 342 343 341 341 341 341 339 340 339 340 338 338 340 340 339
339 339 339 340 340 341 341 342 341 341 342 342 341 339 340 340 340 341 341 339 339 337 336 339 341 342 342 341 342 343 342 341 341 340 340 338 338 337 336 339 339 339 337
340 340 341 341 341 341 341 341 340 341 341 341 340 339 340 340 339 340 339 339 338 339 337 339 340 341 341 338 342 341 340 335 337 339 338 337 335 335 337 338 332 333 336
339 340 340 341 340 340 340 339 339 340 340 339 340 340 340 341 338 337 338 337 338 338 336 339 340 340 339 341 338 335 337 332 330 337 337 333 333 336 336 335 334 332 331
338 340 340 339 340 340 340 340 340 340 339 339 338 336 335 336 335 338 338 337 338 338 337 337 339 337 339 336 336 332 332 336 336 335 335 335 337 336 335 334 334 331 327
339 339 338 338 339 339 339 338 338 337 336 337 337 338 337 335 334 335 333 332 332 334 336 337 336 336 336 336 334 331 332 332 331 329 330 331 330 328 325 323 320 319 319
339 336 335 335 335 335 335 334 333 333 332 332 332 332 332 332 330 328 328 329 330 329 334 333 333 333 333 333 330 327 322 321 320 318 317 318 318 318 318 317 315 313 312
337 336 334 334 334 334 335 334 334 333 333 332 330 330 331 332 331 330 331 330 329 328 328 333 333 333 332 331 329 325 321 320 320 320 318 315 314 313 312 313 313 313 313
333 333 333 332 333 332 331 331 331 330 329 328 328 328 328 330 330 329 329 328 328 328 329 328 331 330 327 326 327 329 323 319 318 319 318 316 315 314 314 315 314 314 311
332 330 330 332 331 330 330 329 329 328 327 326 325 325 324 323 323 324 324 326 327 329 329 330 329 323 320 321 320 320 323 322 316 315 316 317 317 317 315 315 315 311 307
329 327 326 327 330 331 330 329 328 326 324 321 319 318 321 318 314 315 316 315 313 316 320 321 319 314 312 316 316 316 316 316 314 313 314 311 311 311 312 310 308 307 306
324 323 324 326 328 330 327 324 323 322 318 315 316 318 317 311 308 310 310 311 310 310 310 309 309 308 308 310 312 312 311 314 311 309 308 309 309 308 307 306 306 306 307
317 318 319 320 320 320 319 319 318 314 312 313 315 316 313 311 313 313 312 312 311 310 310 310 309 308 308 309 310 309 308 308 307 309 307 309 308 308 307 308 307 307 307

GFSMA_925_thetae_009.txt.gz
Theta_e
346 349 348 346 345 346 344 345 346 345 345 345 345 345 345 342 339 343 346 342 345 340 342 347 347 346 345 344 343 342 340 338 338 338 341 342 337 338 339 340 336 337 336
345 348 346 345 344 343 343 345 344 345 347 346 346 347 345 346 340 341 346 344 345 343 341 343 348 347 346 345 342 342 343 344 342 341 339 340 338 335 336 339 340 336 334
343 344 346 343 341 341 343 343 343 343 346 348 347 347 346 346 343 342 344 345 344 344 341 341 343 346 346 346 345 343 341 341 342 340 340 340 339 337 336 337 340 340 338
343 344 343 342 341 342 342 344 342 342 344 346 347 347 347 347 346 344 344 345 343 344 342 341 340 345 345 346 347 344 341 341 339 341 339 339 339 338 338 338 337 338 338
335 345 345 341 342 343 343 343 341 341 343 346 346 346 346 346 345 346 345 344 343 345 344 344 341 341 344 346 344 345 344 341 340 339 340 338 338 338 338 337 336 336 337
344 345 345 345 344 344 343 342 342 342 342 344 345 346 347 346 346 346 345 344 345 345 345 344 343 341 340 343 339 341 343 342 339 338 336 339 338 337 338 338 338 337 336
344 343 343 342 343 341 343 343 343 342 342 344 345 345 346 348 347 347 346 347 347 347 346 346 345 344 341 340 338 338 339 340 339 338 338 338 338 338 338 338 338 338 337
343 343 342 341 341 339 341 343 343 342 341 343 343 341 340 343 347 346 346 347 347 346 347 346 345 344 342 340 340 339 339 340 340 339 338 338 338 338 338 338 338 338 338
342 341 341 340 340 340 340 342 343 342 342 341 340 340 337 338 339 344 343 346 347 347 347 347 345 345 345 344 343 341 338 340 340 340 340 339 339 339 339 338 339 340 339
338 339 340 339 340 340 340 339 343 342 341 342 341 341 341 340 336 338 344 346 347 347 346 346 346 346 346 345 343 343 339 340 339 340 340 339 339 339 339 339 340 339 340
338 338 338 338 339 340 340 340 342 343 342 340 340 342 341 342 340 336 336 337 343 345 344 345 346 346 345 345 344 343 343 342 340 341 340 339 338 339 338 339 339 339 339
339 339 338 337 338 339 340 340 342 343 342 342 340 341 341 341 340 339 336 337 338 338 341 342 344 345 344 345 344 344 343 343 342 340 340 340 338 338 337 339 337 338 338
340 339 338 338 339 340 340 340 342 342 343 342 341 341 340 340 340 340 339 337 336 340 342 342 342 343 344 344 344 343 342 342 342 343 342 339 338 339 339 335 334 337 338
338 339 340 340 340 341 341 341 341 342 342 342 342 341 339 339 340 340 339 339 336 336 339 341 340 341 342 344 343 343 342 342 341 342 342 339 339 340 340 338 336 337 339
340 338 338 339 340 341 341 341 341 341 341 342 342 341 339 338 340 339 340 340 338 338 336 338 339 341 342 343 342 342 342 342 341 340 339 339 339 338 339 338 338 338 338
340 340 340 341 341 341 341 341 341 341 341 340 341 341 340 339 340 340 340 339 338 338 337 337 339 340 341 341 339 341 342 338 337 338 338 337 337 336 335 335 337 338 337
340 340 340 339 340 340 341 341 340 340 340 340 340 340 340 340 340 339 338 337 336 336 337 337 338 339 340 339 337 337 338 336 334 333 336 337 335 333 335 337 335 333 335
339 339 339 339 339 339 339 339 339 340 340 339 339 339 339 339 338 336 337 337 337 338 337 336 337 337 338 336 335 334 334 330 334 335 331 333 333 335 336 336 333 332 331
337 337 337 338 338 338 339 339 339 338 338 338 337 336 336 336 336 337 336 335 335 336 337 337 334 335 335 335 333 333 334 332 327 330 333 334 334 334 334 332 329 326 322
335 335 335 335 334 334 335 335 336 335 335 335 335 336 335 335 335 333 333 333 333 333 333 333 333 333 333 332 331 326 324 322 318 319 321 322 321 321 320 319 319 317 314
334 333 334 334 334 333 332 332 332 331 331 331 331 330 329 328 328 328 329 329 329 330 332 332 332 332 332 330 329 325 320 321 318 316 316 315 315 315 312 312 312 312 313
332 332 332 332 331 331 331 331 332 331 330 329 328 328 328 329 329 329 329 328 328 330 328 328 328 329 328 329 330 328 322 319 317 317 314 314 313 312 312 313 313 313 312
331 331 330 330 329 328 329 329 328 328 326 324 324 323 323 323 324 325 325 326 327 328 328 328 328 322 320 320 321 322 321 320 316 315 316 316 315 313 313 314 313 311 308
329 328 328 329 328 328 328 328 327 325 320 318 319 322 315 315 315 315 315 313 311 312 315 317 315 313 314 316 316 318 320 318 312 312 314 311 313 316 314 315 314 311 306
324 325 325 327 327 326 325 324 324 321 317 317 317 317 309 309 309 310 310 310 310 309 309 309 308 308 308 309 311 312 313 312 309 307 308 309 309 308 307 307 306 308 309
322 322 322 322 321 319 319 320 318 315 315 315 312 310 311 312 312 312 311 311 310 310 309 308 308 308 308 307 309 308 309 309 308 309 308 309 308 308 308 307 306 306 306

GFSMA_925_thetae_012.txt.gz
Theta_e
341 343 344 348 346 345 347 345 343 344 344 345 346 345 344 341 340 339 344 345 347 343 340 346 345 345 345 341 340 340 342 342 339 340 336 340 339 340 338 334 339 333 332
343 342 345 344 346 344 345 344 345 345 346 345 345 345 345 344 340 338 342 344 342 344 341 341 346 346 346 344 343 341 342 343 341 338 337 340 338 336 339 340 338 332 334
342 342 343 345 344 342 342 343 344 345 345 347 346 346 346 345 345 340 339 344 344 344 343 341 342 345 345 345 345 343 343 343 342 342 340 339 338 337 334 337 340 339 336
344 342 343 345 343 341 341 341 343 343 343 345 346 346 347 347 346 345 340 342 344 343 343 343 341 341 344 345 345 344 343 342 341 341 340 340 339 339 337 336 337 338 339
347 343 342 341 342 343 341 342 343 343 341 342 346 346 346 346 346 346 342 343 344 345 344 343 342 342 341 346 346 345 344 343 341 340 339 340 339 339 338 337 338 336 337
345 344 338 341 344 340 342 343 343 343 341 341 343 345 346 346 346 346 346 344 345 345 343 344 343 344 341 342 345 345 345 342 343 341 339 340 339 338 338 338 338 337 336
344 342 342 342 343 343 343 343 342 342 342 342 344 343 344 345 345 345 345 345 345 344 344 345 344 345 342 341 339 342 341 341 341 340 338 339 337 338 338 338 338 338 337
341 341 341 341 340 341 341 340 342 343 342 342 342 340 343 344 346 346 346 346 346 346 346 346 346 346 345 344 342 340 338 338 339 340 338 338 338 338 338 338 338 338 337
339 340 340 341 340 340 340 339 341 343 342 341 342 339 341 345 340 344 345 346 346 347 346 346 346 346 345 345 343 341 340 340 339 340 339 340 339 338 338 338 338 338 339
338 338 339 340 340 339 340 340 339 342 342 341 341 340 339 338 343 346 343 343 344 346 346 346 346 346 345 345 345 344 344 342 341 339 340 340 340 339 338 339 339 338 339
338 338 338 339 339 338 339 339 340 339 342 341 341 340 340 341 339 337 341 340 344 346 346 346 346 346 346 345 345 344 344 342 343 340 340 340 341 340 338 338 339 339 339
339 339 339 338 338 338 339 339 339 339 341 342 341 340 340 340 340 339 340 337 338 336 338 340 341 342 345 345 345 344 344 343 343 342 343 341 340 340 338 339 338 338 339
339 339 338 338 338 337 338 339 339 339 341 342 341 341 340 340 340 340 338 337 339 338 339 341 341 342 345 344 344 344 343 342 342 342 342 342 340 341 338 338 337 338 336
338 339 338 337 337 339 340 340 340 340 341 341 342 341 340 340 339 339 339 338 340 337 338 339 341 342 343 343 343 343 343 342 342 342 342 342 340 337 338 339 339 334 335
339 339 339 339 340 340 341 341 340 341 341 341 341 340 340 339 339 340 340 339 338 343 341 337 338 340 341 342 342 341 342 341 342 340 340 340 338 338 339 339 339 339 338
339 340 340 340 340 340 340 341 340 341 342 341 340 341 341 340 338 339 339 339 339 338 341 336 337 339 343 341 340 340 341 340 339 339 339 338 338 337 336 336 337 337 337
339 339 339 339 339 340 341 340 341 341 341 342 342 340 340 340 339 340 340 339 337 337 337 337 338 338 337 338 338 338 337 335 333 335 337 338 337 336 335 334 336 337 334
337 337 338 338 338 339 339 339 339 339 339 338 340 339 339 339 339 338 337 337 336 336 337 336 336 336 336 335 334 333 332 331 331 334 334 335 333 333 333 334 332 332 333
336 336 336 336 337 337 338 339 339 338 337 338 338 338 337 338 337 337 337 336 336 337 337 336 334 334 334 333 331 331 329 327 326 329 332 334 334 334 334 333 332 331 329
334 334 333 334 334 335 336 336 336 335 334 334 335 336 335 335 334 334 334 334 335 334 333 333 333 332 331 331 331 328 324 322 321 323 323 324 324 324 326 323 320 318 318
334 334 333 333 332 332 332 333 332 331 331 330 329 328 328 328 329 329 330 329 331 332 332 332 331 332 331 330 329 326 321 319 316 317 317 316 316 315 314 314 313 312 311
332 332 331 330 330 330 331 331 331 331 330 329 327 327 328 329 329 329 329 329 329 329 328 328 329 328 324 324 325 325 321 319 317 315 314 312 311 311 311 310 309 309 308
331 330 328 327 327 327 328 328 328 327 326 324 323 323 323 323 323 324 323 323 324 325 327 327 321 319 317 319 320 321 320 318 315 314 315 314 314 315 315 314 313 309 307
328 328 327 326 326 326 326 326 325 322 320 321 315 314 315 314 313 313 313 312 310 310 312 313 314 315 315 314 315 318 320 315 313 314 315 312 313 314 313 312 310 308 307
325 326 326 327 326 325 324 323 322 318 317 316 309 309 310 310 310 310 311 309 308 307 307 308 307 308 308 309 310 312 312 312 310 307 310 310 309 309 307 307 307 309 310
323 323 324 323 321 320 319 317 318 317 313 310 311 312 311 311 311 311 311 310 309 308 307 306 304 303 303 303 302 303 305 309 308 309 308 308 308 308 307 307 307 308 308

GFSMA_925_thetae_015.txt.gz
Theta_e
339 342 348 351 351 351 351 351 351 349 344 344 346 345 344 345 342 345 346 345 345 345 341 345 343 345 342 342 342 340 343 342 340 339 341 341 340 339 335 340 337 336 332
341 340 339 341 347 346 349 350 349 349 347 344 347 344 344 349 343 342 343 346 343 345 344 341 338 345 346 344 340 343 342 343 342 339 340 338 340 339 339 337 335 338 333
339 340 344 347 349 344 342 344 347 348 349 349 347 343 345 346 347 342 345 346 347 342 344 342 342 343 345 345 344 342 340 341 342 341 339 337 339 338 337 339 339 337 332
344 342 341 346 348 348 343 345 344 347 347 347 348 344 344 345 346 345 346 345 346 347 345 344 342 342 340 344 345 345 344 342 342 342 341 340 339 338 338 336 335 339 338
345 347 347 344 342 347 347 345 342 342 346 346 346 346 345 345 346 347 346 345 346 346 347 347 343 343 341 342 344 344 345 343 342 341 340 340 340 339 339 338 336 336 337
337 344 345 345 344 344 345 346 346 345 346 345 345 345 347 345 345 347 349 347 346 347 347 348 347 345 342 342 341 345 344 344 343 342 340 340 339 339 339 339 338 337 337
344 344 346 344 340 340 345 346 344 345 345 346 345 344 346 345 345 349 349 346 348 348 348 347 346 347 347 346 343 341 344 345 343 340 339 339 339 339 339 339 338 338 338
342 342 342 345 341 342 341 342 344 344 344 345 343 345 347 347 347 348 349 349 349 349 349 349 349 349 349 349 347 343 341 340 338 339 340 338 339 339 338 338 338 338 338
339 339 340 341 344 341 339 338 340 342 343 344 345 344 348 345 347 348 349 349 349 350 349 350 349 346 348 349 349 348 344 342 340 339 338 339 339 338 339 338 338 338 338
338 340 340 339 341 341 340 338 339 339 344 344 344 343 343 342 350 350 347 348 349 350 350 350 349 347 350 350 350 348 346 343 341 341 340 339 340 340 340 339 338 339 339
339 340 340 342 341 341 340 338 338 340 341 343 343 344 344 344 342 342 346 346 346 347 348 349 349 349 350 350 349 349 347 345 344 343 342 340 339 340 341 340 338 339 339
341 340 339 341 342 342 340 339 339 340 340 343 344 343 342 343 344 344 346 343 343 343 344 346 347 346 347 347 348 346 346 344 344 343 342 342 340 340 340 341 339 338 339
340 341 339 340 341 340 338 337 340 339 341 343 344 343 343 341 342 342 341 341 342 342 342 343 344 346 346 347 347 346 344 344 344 343 343 343 342 342 340 340 338 338 338
341 341 341 341 340 338 337 337 342 342 342 343 344 344 343 343 340 339 340 340 348 343 342 343 343 344 344 345 346 344 345 342 342 341 341 341 342 342 340 340 340 338 338
340 341 341 342 342 342 341 341 342 342 341 342 343 343 342 340 339 339 341 341 340 343 344 343 343 342 340 342 345 344 345 343 341 341 340 341 341 340 339 337 337 339 339
339 339 339 341 341 342 342 341 341 342 341 342 344 342 342 343 341 340 340 342 342 341 346 341 341 338 341 341 341 343 342 341 340 339 340 340 339 339 338 338 338 338 338
337 338 338 339 339 340 341 340 341 341 339 338 339 340 342 343 343 342 343 342 342 341 340 338 337 338 337 337 338 338 336 334 334 336 338 338 338 337 337 336 335 335 335
336 337 337 337 340 338 339 339 340 339 338 338 338 337 338 340 339 340 340 339 338 337 336 337 336 336 335 333 332 332 330 330 330 334 333 335 334 334 333 333 334 333 332
336 335 335 335 335 335 336 337 337 337 337 337 337 337 337 338 338 339 338 337 337 336 336 336 335 335 331 328 328 327 328 327 329 329 332 333 333 333 333 332 331 329 329
335 334 334 334 334 334 334 333 334 334 334 334 334 334 334 334 334 334 334 333 334 335 334 333 332 331 330 328 328 326 323 324 324 324 325 326 325 324 322 323 323 322 320
332 333 333 333 332 331 330 330 329 329 330 329 329 329 329 330 331 331 330 330 332 332 331 331 331 331 330 328 326 324 319 318 317 317 316 314 315 314 313 312 312 311 312
330 331 331 330 329 327 331 331 329 327 327 326 326 326 327 328 328 328 328 329 329 329 329 329 327 324 319 320 322 323 319 318 317 314 313 311 311 311 311 310 307 306 306
328 328 327 327 325 325 327 328 327 325 323 322 322 321 321 321 322 321 321 323 323 325 326 325 319 318 316 317 320 320 319 317 314 314 315 314 314 314 313 312 312 312 312
327 327 326 326 325 324 324 323 324 322 317 315 315 316 316 315 313 314 313 312 311 311 312 312 312 312 313 315 318 319 318 315 313 314 315 312 312 311 312 311 310 309 307
325 323 325 325 324 323 321 320 319 318 314 314 314 314 314 312 310 312 313 312 311 308 306 306 305 305 306 308 311 313 312 316 314 311 310 310 309 308 306 306 307 309 310
323 322 322 319 320 319 317 318 317 316 314 314 313 311 311 311 311 313 315 314 312 310 308 307 306 306 305 301 302 306 307 312 313 313 308 311 310 310 310 307 307 307 308

GFSMA_925_thetae_021.txt.gz
Theta_e
352 345 340 340 346 348 347 347 349 350 350 352 351 351 350 349 348 348 348 347 347 343 343 342 344 341 333 341 337 341 343 343 341 341 342 343 341 339 340 341 338 341 340
348 345 342 339 340 343 348 347 350 349 348 350 352 350 351 351 351 350 348 348 346 346 344 344 341 342 334 340 344 339 343 344 344 342 339 340 341 340 339 338 342 340 340
350 345 345 346 337 338 338 336 348 349 349 348 348 351 349 349 350 350 349 348 348 346 344 343 343 341 335 339 344 345 341 341 341 343 341 338 339 339 340 338 339 339 338
351 351 349 348 346 336 333 340 348 347 349 349 348 348 350 348 349 349 349 350 346 347 347 342 342 341 337 338 339 343 346 344 341 341 342 341 338 339 337 339 338 339 337
351 350 347 348 349 345 343 345 348 348 347 348 348 347 348 348 348 349 351 351 350 349 348 348 344 342 341 341 342 340 336 345 345 341 340 340 340 340 338 338 338 337 338
351 349 349 349 349 346 348 349 348 347 345 344 343 344 346 347 349 349 351 350 349 348 350 348 348 344 342 342 341 342 341 338 345 344 342 341 341 341 340 340 339 338 338
351 349 349 348 348 348 348 349 348 346 346 345 347 346 343 343 344 350 350 350 350 352 348 349 349 346 345 343 342 342 343 342 341 345 342 337 337 339 339 340 340 339 338
349 350 350 350 349 348 347 347 348 347 349 346 346 344 344 339 341 348 350 350 352 351 350 350 348 351 345 344 344 346 344 342 343 342 343 342 337 335 336 338 339 339 340
346 345 346 346 349 348 348 346 346 347 347 346 346 344 343 341 339 349 351 350 350 349 350 349 349 352 348 345 348 347 348 347 348 346 342 342 342 339 337 339 338 339 340
345 345 345 345 346 346 349 346 346 346 345 345 345 346 344 343 347 348 347 349 350 349 349 347 347 347 349 349 349 349 349 348 348 348 346 343 341 340 339 339 339 338 338
347 345 345 345 346 345 345 348 348 346 344 344 345 344 345 342 344 346 351 345 348 349 351 349 345 348 351 351 349 349 349 350 349 349 347 344 343 341 340 341 339 340 339
345 345 346 345 344 347 346 345 346 346 345 344 341 345 344 344 343 346 350 345 343 342 344 348 349 350 350 350 349 347 347 347 347 348 347 346 345 344 343 343 342 340 340
345 346 346 346 346 346 346 346 347 346 345 344 341 344 344 344 343 344 346 343 343 342 341 344 344 345 346 346 348 347 348 348 348 346 345 345 344 344 343 342 342 342 340
344 346 344 345 344 345 345 345 345 345 345 345 343 345 346 344 342 343 345 346 349 342 342 343 342 348 346 347 346 346 348 346 346 345 343 343 343 342 342 343 343 342 341
345 345 344 344 345 345 345 346 345 345 344 346 345 343 345 343 343 342 342 344 345 345 345 343 341 343 345 343 340 342 344 342 341 341 341 341 341 341 342 341 341 342 342
343 342 343 344 344 345 346 346 347 346 346 346 345 346 346 345 345 345 345 344 343 344 344 339 341 343 341 338 337 338 338 338 338 338 338 339 339 339 339 340 339 339 339
341 341 341 342 343 345 345 346 345 345 345 344 343 343 344 346 346 343 344 345 344 346 346 343 340 342 338 336 334 332 331 333 333 333 334 335 336 337 337 337 337 336 335
342 341 340 340 340 341 342 342 341 340 341 341 342 342 343 342 344 345 346 346 345 345 345 343 342 336 333 330 329 329 327 326 329 330 331 331 331 332 332 333 334 333 331
341 340 339 338 340 341 340 339 337 335 334 334 335 336 337 338 337 337 337 338 339 340 338 338 337 333 327 327 326 326 325 324 323 324 326 327 328 329 330 330 330 329 329
340 338 338 337 338 338 337 336 336 334 331 330 331 331 331 332 332 333 333 334 335 335 334 333 331 329 327 326 325 323 321 320 319 319 318 319 321 322 322 324 324 324 323
339 338 336 336 335 334 334 336 334 333 332 328 327 329 329 329 330 330 332 332 332 332 332 332 330 327 326 325 325 323 318 317 316 317 316 316 317 316 315 315 314 317 317
338 337 336 334 334 330 331 332 333 333 331 331 330 329 327 325 326 327 328 329 330 331 330 327 325 323 323 323 323 322 318 318 316 315 314 313 312 312 311 309 309 309 311
336 336 334 334 332 327 328 330 331 331 331 329 328 326 325 323 325 323 323 323 321 324 326 326 324 322 322 321 323 321 320 320 317 315 315 312 312 311 311 311 310 310 308
335 334 333 331 329 324 326 325 328 329 328 327 326 326 325 322 321 321 318 315 313 315 318 319 319 319 320 322 321 322 321 318 316 316 316 313 312 311 311 311 311 310 309
334 332 332 331 329 324 323 324 326 327 326 325 321 320 320 318 318 320 319 316 313 310 307 307 306 306 312 315 315 320 321 321 319 319 318 317 313 312 310 310 309 310 309
333 331 330 328 325 324 321 323 323 326 324 321 318 315 314 315 318 321 322 321 319 318 317 315 313 311 311 309 309 312 314 317 318 317 315 317 316 315 314 313 312 311 310

GFSMA_925_thetae_024.txt.gz
Theta_e
350 352 348 346 342 350 350 348 348 341 343 348 348 350 349 346 349 349 349 347 348 346 342 339 342 342 339 341 341 338 341 340 341 340 339 342 341 341 336 335 339 339 337
350 352 346 342 340 342 348 344 333 334 340 343 349 348 351 351 350 346 346 349 347 346 343 342 340 341 340 333 340 339 337 341 344 341 340 339 340 341 340 338 340 337 340
350 350 349 344 347 342 347 341 339 335 332 338 348 349 350 350 351 350 350 349 349 347 346 343 342 341 341 335 335 340 342 341 342 343 342 339 338 339 340 339 337 340 338
352 351 352 351 349 348 338 337 335 334 336 341 347 349 348 350 349 348 349 349 347 349 347 345 343 342 340 340 336 337 342 343 342 341 340 342 341 337 338 338 339 338 339
351 350 350 350 350 349 347 339 337 336 346 347 347 347 347 348 346 350 348 348 349 349 349 346 346 342 341 340 335 338 339 339 343 344 341 340 339 340 338 339 337 337 337
350 349 350 350 347 348 349 348 349 344 346 346 344 345 348 348 347 346 349 350 350 349 348 349 347 344 342 342 340 340 341 341 336 339 344 340 340 340 341 340 339 339 339
348 349 349 347 345 345 348 347 347 345 342 346 347 347 347 348 348 347 350 349 348 348 346 346 349 347 346 344 343 341 341 340 341 338 340 342 341 339 338 340 340 340 340
349 349 348 345 346 346 346 346 346 346 345 346 347 346 349 345 345 348 347 351 349 351 351 351 347 348 347 346 342 341 341 342 342 343 342 341 342 338 336 334 335 338 339
346 345 344 344 344 344 345 345 343 344 345 344 346 345 349 346 346 348 349 349 350 350 350 351 350 348 347 348 345 343 341 345 346 343 342 343 341 341 340 336 334 335 338
347 346 345 345 345 344 344 345 344 343 343 344 344 344 345 347 348 346 346 347 349 348 348 348 346 346 347 349 347 344 344 346 347 346 346 346 345 342 342 342 341 338 338
347 346 345 346 344 344 345 343 344 344 343 345 342 343 344 345 345 346 349 347 347 347 348 348 346 347 345 343 348 347 347 347 347 347 347 346 345 344 343 342 341 339 339
346 344 347 345 344 344 344 344 344 345 343 343 343 343 341 344 344 344 347 347 345 342 343 344 349 346 340 346 346 337 345 347 347 348 347 348 347 346 345 343 342 341 341
346 345 344 344 343 344 345 345 342 342 343 342 343 343 340 341 342 343 344 346 345 343 342 340 342 346 343 345 344 343 339 344 343 344 345 345 345 345 344 344 343 343 342
346 344 345 343 344 345 345 345 346 344 343 343 344 342 340 343 341 343 341 344 347 345 343 343 343 343 345 341 341 340 340 341 343 342 343 343 343 343 342 342 342 342 342
344 342 343 344 343 345 346 346 346 344 344 343 345 345 343 343 341 344 343 342 344 347 345 344 342 342 341 339 337 337 337 337 338 339 339 339 340 341 341 341 340 340 341
342 341 341 341 343 344 346 344 344 344 345 344 343 343 342 343 341 343 343 344 343 343 345 340 343 341 339 337 335 335 334 334 334 336 336 337 338 338 338 339 339 338 338
341 340 340 340 340 342 342 343 342 344 343 343 341 342 343 343 343 342 343 343 343 342 344 343 341 338 336 334 332 331 330 330 330 331 332 332 332 333 334 334 335 334 334
339 338 338 341 341 339 338 339 339 340 339 339 341 341 341 341 342 343 343 343 343 343 343 343 340 332 330 329 328 328 327 325 325 328 329 329 330 331 331 332 332 331 330
339 337 337 339 337 337 337 336 335 334 334 334 334 334 335 335 336 337 337 339 339 339 339 339 334 330 325 325 324 323 323 322 320 321 322 324 324 325 325 326 326 327 327
340 338 336 335 335 336 334 333 333 331 331 330 331 330 330 331 333 333 334 334 335 335 334 333 330 328 325 325 324 321 319 319 318 318 317 319 320 321 320 321 322 322 323
338 338 337 335 334 333 334 334 332 331 330 330 328 327 327 329 330 332 332 332 332 333 332 330 328 326 326 325 325 322 317 317 316 315 314 314 315 313 313 313 313 315 316
337 337 336 334 330 329 332 332 332 330 329 329 328 327 326 324 324 327 328 330 331 331 329 328 326 325 324 324 324 321 318 319 317 316 315 313 313 312 311 310 308 308 309
337 336 335 332 328 328 330 330 331 330 328 328 328 326 326 324 325 323 322 320 322 324 327 326 324 324 323 323 323 321 321 320 317 316 315 312 312 312 312 311 310 310 309
334 334 332 330 325 326 327 329 329 328 327 326 325 324 322 320 320 317 313 312 314 316 318 320 321 321 322 322 322 321 320 318 317 317 317 314 313 312 312 312 311 310 309
333 332 331 330 327 324 324 325 327 326 325 322 320 321 320 318 320 320 317 314 312 311 311 310 309 310 314 315 314 318 321 321 320 319 318 317 314 313 312 311 310 309 308
333 332 330 328 326 322 323 323 325 326 323 320 317 314 315 318 320 323 322 321 320 318 317 315 312 310 309 310 310 312 312 316 317 317 314 317 316 314 314 313 312 310 309

GFSMA_925_thetae_027.txt.gz
Theta_e
346 350 349 349 346 350 349 349 349 348 348 343 346 347 347 349 347 349 348 349 346 346 343 340 341 340 336 337 343 342 343 341 340 337 338 339 339 341 337 333 336 341 339
346 348 347 346 342 340 343 342 344 346 343 336 345 345 346 346 346 347 349 348 346 347 345 341 339 340 338 340 341 341 341 343 342 340 337 337 339 340 340 337 336 336 335
347 348 349 348 344 342 343 341 344 337 336 334 336 338 343 345 346 345 346 347 348 347 346 343 342 339 340 338 335 340 339 338 340 342 341 339 336 338 340 340 338 339 338
350 350 349 349 347 347 346 341 342 339 334 334 334 339 343 345 346 348 346 345 347 348 348 346 345 342 341 340 336 334 341 339 339 340 341 341 341 337 337 338 338 338 337
349 349 349 349 348 348 347 343 336 337 335 334 336 339 343 345 347 347 347 348 346 346 346 348 346 344 343 341 341 337 337 338 341 341 340 340 339 340 339 336 337 337 339
341 348 349 349 348 346 347 347 342 338 335 336 343 345 345 345 336 347 346 348 348 347 348 349 348 346 344 342 341 340 336 339 339 340 340 343 341 341 339 339 339 339 338
337 344 347 346 346 346 346 344 344 345 344 343 345 340 344 345 344 346 347 349 348 349 347 348 348 349 347 343 341 341 339 338 341 340 340 335 342 343 340 339 339 340 339
347 348 347 345 345 344 343 344 344 343 342 343 339 335 339 343 345 346 347 346 348 348 348 348 347 348 348 346 343 343 343 342 341 341 341 342 339 341 343 341 339 339 338
348 346 345 343 343 343 342 342 342 343 344 343 340 343 341 340 342 345 347 346 345 347 348 351 348 348 348 346 347 346 345 342 341 341 342 342 342 342 341 343 339 336 335
347 347 345 345 345 345 344 343 343 343 343 344 343 343 343 343 340 340 346 346 345 346 349 349 347 346 346 347 346 346 346 344 343 343 345 345 344 343 343 343 341 340 338
345 343 343 345 344 344 343 343 344 342 343 343 343 342 342 342 343 341 340 342 345 347 347 346 347 347 346 346 346 346 347 345 343 344 345 345 345 345 345 344 343 342 342
345 343 343 343 343 344 343 344 344 342 342 343 342 343 342 342 341 343 340 340 341 343 344 344 344 345 346 341 337 335 335 336 339 339 343 343 342 344 346 345 344 343 342
344 343 344 344 344 345 345 343 343 341 342 342 342 342 342 342 340 341 342 340 340 343 343 343 345 345 343 340 341 338 336 335 334 336 339 339 339 341 344 346 345 343 343
344 341 342 343 343 345 346 345 345 344 342 342 342 342 342 340 340 341 342 341 340 340 342 342 342 342 341 340 341 340 338 339 340 340 341 342 342 342 342 342 341 341 342
341 340 340 342 344 345 344 344 345 345 345 343 342 341 340 337 339 342 342 343 340 339 338 340 339 337 338 337 336 337 337 337 338 338 338 338 339 339 340 340 340 339 340
339 339 339 339 341 342 342 343 343 343 342 342 343 343 342 342 342 342 342 342 342 341 338 340 337 333 332 331 331 332 333 334 334 335 336 336 337 337 337 338 338 337 336
337 338 339 338 338 338 339 340 339 339 339 340 340 340 341 342 341 340 340 341 342 342 339 339 335 330 328 330 329 329 330 330 329 330 331 331 331 331 332 333 333 333 331
337 337 337 337 336 336 335 335 335 335 335 336 337 337 337 338 339 339 340 340 341 342 341 339 331 327 325 326 326 325 324 323 323 325 327 328 329 329 330 330 330 329 328
336 335 335 336 334 334 333 333 332 332 333 333 333 333 333 334 334 335 337 338 338 339 338 338 331 326 322 323 322 321 321 321 319 319 321 324 324 324 324 323 323 323 323
336 336 335 334 334 333 332 331 331 330 330 328 329 330 330 331 332 333 334 334 334 334 333 331 328 326 324 323 321 319 318 317 317 317 318 317 318 320 320 320 320 319 318
337 337 334 332 332 332 332 331 330 329 328 327 326 326 327 329 331 331 331 332 332 331 330 327 327 326 326 325 323 320 317 316 314 314 314 313 312 312 311 311 311 311 311
337 335 334 330 331 331 331 330 329 329 328 326 326 324 323 322 323 326 329 331 331 329 328 326 325 324 324 324 322 320 317 317 316 316 314 312 313 312 312 311 309 309 309
335 334 331 327 329 329 329 330 328 328 328 327 326 324 322 322 319 322 322 324 325 327 326 325 324 323 323 324 322 321 322 320 317 315 315 313 312 312 311 311 311 310 309
334 332 330 326 326 327 327 328 327 326 325 325 323 320 319 318 316 313 314 313 313 316 321 321 322 322 322 322 322 321 320 318 317 316 316 313 312 312 311 311 310 308 307
333 331 330 327 324 324 324 327 325 325 323 321 320 319 318 320 319 318 317 314 314 313 311 310 312 314 311 312 316 319 317 318 318 317 317 316 313 311 311 310 309 307 306
333 331 328 327 322 322 322 323 327 323 319 317 316 315 318 320 321 320 319 319 316 316 314 310 309 310 309 308 310 311 313 318 319 316 311 317 314 313 313 312 310 307 308

GFSMA_925_thetae_030.txt.gz
Theta_e
341 345 349 347 345 346 349 347 349 349 348 347 346 345 343 345 345 345 348 348 342 344 344 342 343 341 336 340 341 340 336 337 339 335 342 342 341 338 335 331 336 336 340
344 343 346 344 345 345 346 347 348 347 348 347 341 345 345 345 345 346 347 347 348 347 346 344 341 345 341 339 337 343 340 344 343 338 340 341 339 340 339 335 331 339 340
345 345 345 344 346 343 340 340 341 342 342 344 340 341 345 343 345 345 346 347 348 347 346 345 343 341 341 339 336 343 341 343 343 340 340 338 339 340 340 340 337 336 337
347 349 347 348 347 347 346 344 344 342 340 335 334 334 337 338 342 343 347 345 346 346 347 346 345 343 341 340 339 336 340 341 340 341 341 340 339 338 339 339 339 338 338
348 348 347 349 347 347 346 344 344 342 339 337 334 335 335 338 342 345 345 346 346 345 344 345 347 346 344 343 341 339 334 337 339 339 340 341 339 339 340 338 338 338 338
345 349 348 347 346 346 346 345 345 343 338 337 336 341 343 342 342 344 346 347 346 347 345 346 346 347 347 345 343 342 340 335 336 338 340 340 340 339 339 340 339 337 337
340 341 344 346 347 346 345 345 345 343 341 338 336 340 343 343 343 343 344 340 347 345 345 347 346 347 347 347 345 343 342 340 338 339 340 340 340 341 342 340 339 339 339
346 347 346 344 342 342 343 343 343 344 344 344 341 337 335 337 338 342 345 344 346 346 346 347 348 348 348 345 347 346 343 343 342 340 340 341 341 339 337 340 341 340 340
347 347 346 345 343 344 344 344 343 342 343 342 343 339 338 340 338 341 343 344 345 346 345 345 346 347 347 346 346 346 345 345 345 344 344 341 341 342 342 342 341 341 341
345 343 342 343 344 344 344 343 343 344 343 343 341 339 339 340 340 340 342 345 346 346 344 344 345 345 346 346 347 346 345 345 345 344 343 343 344 345 344 343 343 342 341
344 342 343 343 343 343 343 343 343 344 343 343 342 342 341 342 342 340 341 340 344 343 344 345 346 346 346 346 345 344 343 339 342 341 340 342 344 344 345 344 344 344 344
342 341 343 343 344 344 345 344 343 343 342 342 342 342 341 341 341 341 340 339 338 342 344 343 343 344 344 344 342 339 339 335 337 337 339 339 341 340 339 338 339 343 344
340 341 342 342 343 344 344 343 343 342 342 342 342 342 342 342 341 340 340 339 338 341 343 343 342 343 343 341 340 338 337 337 335 336 335 333 336 337 338 338 339 341 344
339 340 341 343 344 344 345 344 344 343 342 342 342 342 342 342 341 340 340 339 339 338 339 340 344 343 341 339 338 338 337 335 335 336 337 337 339 340 340 341 341 341 341
338 339 339 341 342 343 343 343 343 344 343 342 342 342 341 339 339 340 341 341 339 337 335 337 338 339 339 340 340 339 338 339 338 337 338 337 338 338 338 339 339 339 339
337 338 337 338 339 341 342 342 341 341 341 342 342 342 342 342 342 342 341 342 338 338 336 336 335 336 336 335 335 335 333 334 334 335 335 335 336 336 336 336 335 335 335
337 336 337 336 335 336 337 337 337 337 337 338 338 339 340 340 340 341 341 340 341 340 336 332 332 331 330 329 329 329 329 330 329 330 331 331 331 331 331 332 331 330 329
335 335 335 335 334 333 333 333 334 334 334 334 334 335 335 337 338 339 339 340 340 340 337 331 327 326 325 325 325 325 323 323 323 324 327 327 327 328 328 327 327 326 326
335 335 334 333 332 332 331 331 331 331 331 331 332 332 333 334 334 335 336 337 338 338 337 330 326 324 321 322 321 320 319 319 318 319 321 322 321 322 323 322 322 321 321
335 334 333 333 332 331 330 330 329 327 327 328 329 330 330 330 332 333 333 333 334 335 333 329 325 323 322 320 320 318 318 318 318 318 319 319 320 320 319 319 317 315 314
336 334 332 332 332 330 330 329 328 327 325 324 325 326 327 329 330 331 332 331 331 331 329 327 326 325 324 321 320 319 316 315 314 314 313 312 312 311 311 311 312 311 310
335 333 331 331 330 330 329 329 328 327 325 325 324 323 322 322 325 328 330 330 329 328 326 326 326 325 325 324 322 319 316 315 315 315 314 313 313 312 311 310 309 309 309
335 333 328 330 329 329 329 328 328 327 326 325 322 321 316 315 321 322 324 326 327 326 325 325 324 324 324 323 321 318 318 320 317 316 314 312 312 312 311 310 309 308 308
333 331 327 328 327 326 328 327 326 325 325 322 320 319 318 316 312 313 313 314 317 320 322 322 322 322 322 322 322 321 321 318 316 315 314 312 312 311 310 310 308 307 306
332 330 327 325 325 323 326 326 325 324 322 321 319 318 320 319 318 316 316 314 310 309 313 314 311 311 311 314 319 319 317 316 316 316 316 314 312 310 309 309 307 306 305
332 330 327 324 322 322 321 326 324 321 319 317 315 317 319 320 321 319 319 317 315 313 311 310 310 308 304 305 311 313 313 317 318 315 313 316 312 312 311 310 308 306 306

GFSMA_925_thetae_033.txt.gz
Theta_e
346 342 347 348 347 347 348 348 347 347 347 346 344 343 344 343 343 340 343 347 345 342 343 344 347 346 345 343 344 344 344 339 339 340 339 342 340 339 337 339 340 336 332
343 342 346 346 345 344 344 345 346 345 345 348 347 346 345 344 345 346 345 347 346 345 344 344 344 347 346 342 344 344 344 343 339 341 338 341 340 341 338 336 337 339 339
347 345 346 345 343 344 344 344 346 344 345 345 346 344 343 344 345 344 345 345 347 347 347 346 345 343 343 344 341 338 342 343 341 342 340 339 340 338 339 339 338 334 337
346 338 346 347 345 346 345 343 341 342 343 342 340 342 343 341 342 340 344 344 346 346 347 347 345 345 343 342 341 339 336 341 338 342 342 341 339 337 338 338 339 339 336
345 342 347 346 346 346 345 345 345 344 343 341 338 335 333 334 336 338 343 343 345 345 345 345 345 345 345 344 343 341 339 337 339 340 340 340 340 340 338 337 337 338 338
346 347 347 348 347 346 345 346 345 344 343 341 337 336 338 339 337 338 343 345 345 346 346 345 345 345 345 346 345 344 343 341 338 337 339 338 339 340 339 339 339 337 337
343 338 343 345 346 345 345 345 345 345 343 340 336 337 336 336 342 343 343 343 344 344 346 345 346 346 347 345 345 346 345 344 342 338 336 338 340 340 340 340 339 339 339
346 347 347 346 343 343 342 343 343 343 343 341 339 337 338 337 338 339 341 341 342 343 342 344 345 346 347 347 346 345 345 346 344 343 341 339 339 341 341 340 338 340 340
346 346 345 344 343 343 344 344 343 343 342 342 342 339 336 339 337 339 339 341 343 343 344 345 344 344 344 346 347 346 345 345 345 344 345 344 341 342 341 341 341 340 339
343 342 341 342 343 343 343 343 343 343 343 342 341 342 338 338 339 339 339 339 342 344 345 345 345 343 345 345 345 345 344 345 344 344 344 343 342 342 344 344 343 343 343
341 341 342 342 342 343 344 344 343 343 344 343 341 340 340 341 341 339 340 338 338 342 344 344 344 345 345 345 344 344 343 342 337 339 342 341 340 344 343 343 343 343 343
339 340 342 342 343 343 344 343 342 343 344 342 342 341 341 340 340 339 338 339 338 340 342 342 343 343 344 344 342 341 339 338 335 338 339 338 338 339 339 338 338 337 337
339 340 342 343 343 344 344 344 343 342 341 342 342 342 341 341 340 340 339 338 337 338 342 342 343 344 342 342 341 339 338 337 335 335 335 335 334 334 334 335 337 338 340
338 338 340 342 343 344 344 344 343 342 341 341 341 341 341 341 341 340 339 338 339 337 338 339 338 339 339 340 338 338 337 336 337 337 337 338 338 338 338 339 339 339 340
337 337 337 340 342 342 342 342 342 341 342 342 341 341 341 340 340 341 340 339 339 339 336 338 338 336 336 337 336 335 335 335 335 335 336 336 336 336 336 336 337 337 337
336 336 336 337 338 339 339 340 340 340 341 341 341 341 341 342 341 340 341 341 340 338 337 336 334 335 336 335 333 334 333 333 333 333 333 333 333 332 332 332 332 331 331
335 335 335 334 334 336 336 336 336 336 336 336 337 339 339 340 341 341 341 341 339 337 336 332 332 332 332 331 330 330 329 329 327 328 329 329 329 330 330 330 329 328 328
334 334 333 332 332 332 333 333 334 333 334 333 333 334 335 336 338 338 339 339 340 339 336 331 328 327 326 326 325 325 323 323 322 321 325 324 326 326 326 325 325 325 325
334 333 332 331 330 330 330 329 330 329 330 331 331 331 332 333 334 334 336 337 337 338 335 331 326 324 321 322 322 321 320 320 321 322 323 323 322 322 322 321 320 320 320
334 333 332 331 330 329 328 327 326 327 328 329 329 328 329 331 332 332 332 333 334 334 332 329 325 323 321 320 320 318 318 318 317 317 319 318 319 319 317 315 314 313 313
334 332 331 331 330 329 328 327 325 324 324 323 323 324 326 329 330 331 330 330 331 330 329 326 324 323 322 319 319 319 316 315 315 313 312 311 311 311 311 311 310 309 309
333 332 330 330 329 329 328 328 326 325 325 324 321 317 323 325 327 329 329 328 328 328 327 326 325 325 323 323 321 319 316 316 316 314 314 312 312 311 309 308 308 308 308
333 330 329 329 328 328 328 327 327 325 324 321 318 315 319 319 320 323 326 326 325 325 325 326 325 324 324 323 322 319 317 319 317 316 314 312 312 311 310 309 308 307 307
333 330 327 327 327 328 327 326 325 325 322 319 319 318 314 312 312 313 316 319 321 321 322 322 322 321 322 322 321 320 319 318 316 315 313 311 310 310 310 309 307 306 306
331 328 326 325 325 326 327 325 324 323 321 319 318 319 319 317 315 316 312 311 314 315 314 313 310 308 308 316 319 319 318 317 315 315 315 313 311 309 308 307 306 305 305
330 327 324 322 322 322 323 325 323 320 319 316 316 318 319 320 318 318 317 312 310 309 310 309 308 305 304 307 316 316 313 316 317 315 316 314 312 311 310 307 306 306 305

GFSMA_925_thetae_036.txt.gz
Theta_e
345 345 343 347 348 348 347 346 345 344 344 345 344 342 343 343 342 340 337 344 345 344 345 343 344 342 345 342 342 342 341 341 334 339 339 342 341 339 339 336 341 337 333
346 343 342 344 347 347 345 346 348 347 346 346 346 346 343 344 344 344 342 340 345 346 344 342 343 344 347 344 342 343 342 343 341 337 340 333 342 340 338 334 338 339 336
347 345 344 345 344 344 344 344 345 346 346 345 345 346 344 344 344 344 345 345 345 346 345 345 345 344 344 346 346 343 343 343 343 341 340 336 338 340 340 339 336 333 337
346 346 345 340 346 346 344 342 342 342 342 341 342 342 342 343 341 341 342 343 344 345 346 347 346 345 344 343 344 346 343 340 341 340 340 341 338 339 339 338 339 339 336
345 344 341 343 346 345 346 346 344 343 343 343 342 340 338 335 337 338 340 339 341 344 345 345 346 346 345 344 344 343 343 340 337 339 339 341 342 340 338 337 338 338 338
345 346 345 344 347 347 346 345 345 345 344 343 341 340 338 336 334 335 334 336 343 343 345 345 345 345 344 343 344 344 344 343 341 339 338 339 339 338 338 339 338 338 337
344 341 340 344 344 345 345 344 344 344 344 343 340 337 338 337 337 338 339 338 342 344 345 346 345 345 346 345 346 344 343 345 344 344 342 338 338 338 339 340 340 339 339
345 346 346 346 346 343 342 342 343 342 342 342 338 337 343 338 337 338 342 342 342 342 342 342 342 343 344 345 345 346 345 344 343 344 344 343 340 338 338 340 341 340 340
345 344 343 342 342 343 343 343 343 342 344 341 339 340 340 343 338 338 338 339 340 342 343 343 343 344 344 343 344 345 346 346 345 344 345 344 343 342 339 339 341 341 340
342 341 341 342 342 342 342 343 343 343 342 341 339 340 337 337 339 338 338 338 342 343 344 343 344 345 343 343 344 344 345 344 345 345 344 345 344 343 343 341 343 341 342
339 339 340 342 342 343 343 344 343 343 343 342 341 340 341 340 340 340 342 338 338 342 343 344 344 343 345 345 345 344 343 342 339 340 340 340 342 340 342 342 342 343 343
339 340 342 342 342 343 344 342 342 343 343 343 343 341 340 340 340 340 339 338 338 340 341 341 342 343 345 345 342 341 340 338 336 335 337 338 338 337 338 338 337 338 338
338 339 341 342 343 344 343 343 342 342 342 342 342 341 341 340 340 340 339 338 338 338 340 340 340 340 339 339 339 338 336 336 334 335 336 336 336 336 337 337 338 338 339
337 337 338 341 342 343 343 343 342 342 341 341 341 341 341 341 340 340 339 338 338 337 338 338 336 337 336 336 336 335 334 335 335 335 335 336 336 336 337 337 337 337 337
336 336 336 339 340 340 341 340 340 341 341 341 340 340 341 341 341 341 339 338 337 339 339 337 336 334 335 334 334 334 332 333 332 333 333 334 334 334 334 334 334 335 335
335 335 334 336 337 337 337 338 338 338 339 339 340 341 341 340 340 340 341 339 339 337 338 336 334 331 332 331 330 331 329 330 330 330 330 330 330 331 330 330 330 330 330
334 333 332 333 334 334 334 334 334 335 335 335 336 338 338 339 340 341 341 341 339 337 335 331 331 329 328 328 327 327 327 327 325 327 327 328 328 328 328 328 327 327 328
333 332 331 331 331 331 332 332 332 332 332 332 333 334 335 336 337 338 339 339 340 337 336 330 327 325 324 325 325 325 323 323 321 322 324 324 324 324 323 323 323 323 325
332 331 330 330 329 327 328 329 329 330 330 329 329 330 331 332 333 334 335 336 337 336 335 331 326 324 321 322 322 321 320 320 320 321 322 322 322 320 319 318 318 319 319
332 331 330 330 328 327 325 326 327 327 326 327 328 329 330 331 330 331 332 331 332 332 331 330 325 323 321 320 321 319 318 317 315 315 318 316 318 316 313 312 311 311 311
332 331 330 329 329 328 326 324 324 324 323 321 323 326 328 329 329 329 329 330 331 330 328 326 324 322 321 320 320 319 316 315 314 313 311 310 311 311 310 309 309 309 309
332 330 330 328 328 328 327 326 325 324 319 315 320 321 322 325 328 327 327 327 327 328 327 326 325 324 322 322 321 319 317 317 317 315 313 312 311 309 308 307 307 307 307
331 329 329 328 328 328 327 326 325 323 321 317 314 314 314 317 322 325 325 324 324 325 325 326 325 324 324 323 322 319 317 319 317 315 314 312 312 311 309 308 307 307 306
331 328 327 326 327 327 325 325 324 323 320 318 318 316 315 314 312 315 319 320 320 321 321 321 320 318 320 321 321 320 319 319 316 314 313 312 310 309 310 308 306 306 305
330 326 325 324 326 326 324 323 323 321 319 318 319 319 317 316 315 311 311 315 315 313 310 307 305 306 309 317 319 318 318 317 316 315 315 313 310 308 308 307 305 305 305
329 325 323 322 322 323 325 324 321 320 317 315 317 318 319 319 317 318 314 309 309 310 309 307 306 306 305 305 308 309 311 317 317 317 316 315 312 309 311 307 306 305 305

GFSMA_925_thetae_039.txt.gz
Theta_e
342 344 344 344 348 351 350 346 346 347 349 348 346 348 346 347 347 345 344 339 345 345 344 344 343 342 340 339 341 340 340 342 335 336 341 342 342 338 341 339 340 338 333
343 342 343 344 345 349 350 349 346 345 345 345 350 350 349 347 348 349 346 343 339 344 345 343 343 343 343 345 343 342 341 343 343 335 336 341 337 341 339 339 335 342 338
344 345 343 345 347 346 345 345 347 349 348 345 348 348 347 347 347 346 346 348 346 343 345 345 344 344 344 346 346 343 342 342 342 342 335 337 338 337 341 339 338 335 339
344 345 348 349 343 344 345 344 346 348 348 348 347 346 346 345 345 345 346 344 347 347 346 345 345 345 345 344 344 344 344 342 342 343 343 340 339 336 338 339 339 339 337
346 346 345 346 341 346 345 345 346 344 344 346 345 345 344 342 342 343 344 344 343 345 347 347 346 346 345 345 344 343 343 343 343 340 339 340 339 340 340 338 338 338 338
345 345 344 345 346 347 350 349 348 347 347 347 345 343 343 342 340 339 339 340 342 344 346 348 348 347 345 343 342 342 343 343 343 343 341 340 340 339 340 339 338 338 337
343 341 343 342 345 346 349 348 347 347 346 344 345 345 343 343 343 342 342 342 340 345 348 348 344 343 348 345 345 345 345 342 343 344 343 344 339 339 339 339 338 338 339
345 345 345 345 347 348 347 347 346 344 343 344 344 344 345 344 342 342 341 344 345 345 347 348 349 345 343 342 342 343 345 346 345 343 343 344 342 339 339 338 337 338 341
343 343 342 342 342 343 345 346 346 344 344 341 343 345 347 347 343 338 340 340 341 345 345 346 348 347 349 345 342 342 344 346 346 346 344 343 345 344 343 342 339 338 340
341 340 340 343 344 345 345 345 345 343 342 344 341 341 343 342 346 345 342 341 342 343 345 347 348 349 350 346 346 345 345 344 344 345 344 344 345 344 344 344 344 341 340
340 342 342 343 344 346 345 344 344 343 343 342 341 343 340 344 344 345 346 341 340 341 343 347 348 348 346 345 349 344 344 342 339 338 339 339 339 340 341 341 341 341 343
342 341 342 342 342 343 344 344 343 343 342 341 340 343 344 344 344 345 346 342 341 340 341 342 342 343 343 344 342 340 339 338 336 336 335 335 337 337 336 335 336 337 337
340 340 340 342 342 343 343 343 343 344 343 342 343 344 344 345 343 344 344 342 340 339 339 339 340 340 339 338 338 337 336 336 335 335 336 337 337 337 337 338 338 339 339
339 338 339 339 340 341 342 342 341 341 341 343 344 344 344 345 343 342 340 339 340 339 339 336 335 335 335 334 335 334 334 333 333 334 334 334 334 334 334 335 336 336 337
337 337 337 337 337 338 338 339 340 341 340 341 341 344 344 344 344 343 340 339 343 343 341 338 333 332 333 333 332 332 331 331 332 332 333 332 333 332 332 332 333 334 335
336 335 336 337 336 335 336 336 338 337 338 338 340 340 340 341 343 343 343 340 338 341 341 336 331 328 329 330 329 329 327 329 329 329 329 330 330 330 329 329 329 329 330
335 334 334 334 334 334 334 335 334 336 336 337 338 336 337 338 339 341 343 343 339 337 335 330 328 326 326 327 326 326 325 324 325 326 327 327 327 327 326 326 326 327 328
334 333 333 332 331 331 332 333 332 332 334 334 335 332 333 334 336 337 339 339 340 340 336 331 325 323 321 323 323 323 322 321 321 322 323 322 322 322 321 321 322 323 324
333 332 332 331 329 329 330 330 330 330 330 330 331 332 331 334 333 334 334 335 335 336 335 331 326 323 320 321 320 320 319 319 319 320 320 321 318 318 317 317 317 317 318
333 332 332 331 329 327 327 326 326 326 326 327 328 328 329 330 333 334 332 332 332 331 330 328 324 322 321 320 320 318 317 315 315 315 315 314 314 312 312 312 311 311 311
332 331 330 330 330 328 326 327 326 321 323 324 324 326 326 327 328 329 332 333 333 331 328 326 324 322 321 320 320 319 317 316 315 315 313 313 314 313 312 310 309 309 309
332 330 329 330 329 328 326 325 324 319 320 321 320 320 324 325 326 326 326 326 328 331 331 329 327 326 324 322 320 319 317 318 319 317 317 315 314 311 311 310 308 308 307
331 329 328 329 330 327 326 325 323 321 319 316 316 316 316 319 322 322 323 324 324 325 327 328 327 326 326 325 323 319 319 319 319 317 318 315 313 313 313 310 307 306 306
330 328 327 328 328 325 325 324 323 321 320 319 318 317 317 314 314 319 319 319 318 317 317 318 319 320 322 323 322 322 321 319 317 316 314 316 312 313 313 312 306 306 305
329 326 325 326 326 324 324 323 322 320 319 319 319 318 318 318 315 310 316 317 315 311 306 306 306 306 307 313 317 320 320 321 321 320 318 316 313 313 312 311 309 305 304
328 325 324 323 324 325 323 322 320 319 318 317 317 319 319 318 319 317 316 315 314 314 313 311 311 308 306 306 305 307 311 314 316 318 319 318 317 314 314 312 310 309 306

GFSMA_925_thetae_042.txt.gz
Theta_e
343 343 346 342 345 350 352 351 349 350 349 350 349 349 348 347 347 345 344 343 342 345 345 345 344 343 342 341 337 344 344 342 338 338 343 343 340 338 338 341 339 336 333
341 343 343 344 347 349 346 349 351 350 348 349 350 349 349 348 348 347 347 346 342 341 345 345 344 343 343 344 341 339 342 344 344 342 335 339 343 341 341 341 342 339 342
341 342 345 349 347 349 351 351 351 351 349 349 348 349 349 348 348 348 349 347 348 344 339 344 345 343 343 342 343 343 342 343 342 342 341 337 336 341 337 340 340 340 336
349 349 347 349 349 350 349 348 350 349 349 349 349 349 348 347 347 347 347 348 347 347 346 343 344 344 344 344 344 344 343 342 342 342 342 342 341 336 339 334 338 339 339
348 347 346 348 350 349 351 349 348 348 349 349 348 348 347 347 346 345 345 347 348 347 348 348 347 346 344 345 345 344 343 342 341 341 341 340 340 339 339 339 336 338 338
352 352 350 348 349 349 349 350 350 348 348 347 348 346 346 347 345 343 343 345 347 347 346 347 349 348 345 345 344 343 343 343 343 342 342 342 340 339 339 339 339 341 339
348 352 352 350 350 350 349 349 349 348 347 347 347 345 344 346 347 344 343 341 341 342 344 347 349 349 349 347 344 344 343 343 343 343 342 342 343 342 340 340 339 340 340
350 350 349 349 349 349 350 349 349 348 347 348 346 345 349 346 345 346 345 344 345 343 345 349 351 350 344 343 347 345 343 344 345 344 343 341 342 343 341 339 339 338 339
348 348 348 348 349 348 345 348 348 348 346 346 346 345 351 346 347 346 346 345 347 346 347 347 349 349 350 349 348 346 343 344 345 346 344 344 344 343 343 344 343 342 342
347 347 347 347 347 346 347 347 347 348 348 346 345 345 345 347 351 352 345 347 347 346 347 349 349 349 350 350 348 346 344 344 344 344 345 344 344 345 345 344 343 342 344
345 345 346 347 347 348 348 348 348 348 347 347 346 345 345 345 347 348 351 345 344 342 344 345 349 349 349 349 347 343 341 340 338 338 337 338 339 339 340 341 339 338 338
342 344 346 344 345 347 348 348 348 347 346 346 345 343 345 346 345 348 350 347 345 341 342 343 343 345 345 344 342 339 339 337 336 335 335 336 336 336 336 337 336 337 338
341 343 346 344 343 347 347 348 347 347 347 347 346 345 345 347 348 348 348 345 342 341 339 338 339 339 339 338 337 336 335 335 335 335 335 335 336 336 336 337 337 338 339
340 342 344 343 344 346 346 345 344 344 346 346 346 347 347 348 348 348 346 345 346 340 340 335 334 335 335 335 334 334 332 333 333 334 334 333 334 334 334 335 335 335 335
339 341 341 341 342 343 344 344 343 342 343 344 345 345 346 348 348 348 341 340 343 347 343 335 332 331 332 332 331 330 330 332 332 332 332 332 332 331 331 331 331 332 333
339 340 340 340 341 341 342 342 341 341 343 343 343 343 344 345 345 345 347 341 340 342 346 336 329 328 329 329 328 328 328 329 329 329 330 330 329 329 329 328 329 329 329
338 339 339 339 339 339 339 339 339 339 338 339 340 341 341 342 343 344 345 345 344 343 338 327 326 325 325 326 325 324 323 322 323 326 326 326 326 326 326 326 326 327 328
338 337 337 337 337 337 337 337 337 337 336 336 337 338 339 340 341 341 342 342 344 343 337 327 324 322 322 322 322 322 320 321 320 322 323 322 322 322 321 321 321 322 323
336 336 336 335 335 335 334 334 334 335 335 335 335 335 336 337 337 337 338 338 338 338 337 328 323 322 320 320 319 320 320 320 320 319 320 320 319 318 317 316 316 316 317
336 336 335 333 333 332 332 332 331 332 332 333 334 333 333 333 335 336 336 336 337 334 330 327 323 322 321 320 320 318 317 315 315 315 316 315 314 313 312 311 312 312 311
336 335 334 334 332 330 331 331 326 330 330 330 330 329 328 327 327 330 333 334 334 334 330 326 324 322 321 321 321 320 318 316 316 316 316 317 318 318 316 313 311 310 309
336 335 334 333 332 328 325 324 325 325 325 324 325 326 327 327 325 325 326 328 332 334 333 331 329 328 326 323 321 323 320 321 324 320 321 321 320 318 317 314 308 308 308
336 334 334 334 333 328 325 324 325 324 323 324 323 322 323 323 325 326 325 325 325 326 329 329 329 329 328 327 327 325 324 323 323 321 321 321 318 318 316 312 308 306 306
334 332 332 334 332 326 324 323 325 326 325 325 324 324 321 318 319 323 322 318 314 315 318 319 320 320 321 323 324 324 324 324 322 321 319 321 317 317 316 314 306 305 305
335 332 332 333 330 326 323 323 326 325 325 324 324 323 323 319 314 318 320 318 314 310 307 306 306 305 304 304 306 316 321 319 323 322 321 320 318 316 316 314 312 305 304
335 332 329 329 328 326 323 322 325 325 323 323 322 321 320 320 319 319 321 319 318 317 316 316 315 313 313 311 309 312 311 313 314 318 320 319 319 318 316 314 313 310 308

GFSMA_925_thetae_045.txt.gz
Theta_e
343 344 344 344 344 349 346 351 351 349 350 351 348 349 348 347 347 345 346 346 344 342 345 345 345 345 344 344 344 343 343 344 343 341 342 341 342 341 341 341 341 338 334
340 342 342 343 342 344 345 348 350 351 349 349 348 348 348 348 347 346 346 347 345 341 341 344 345 345 344 343 341 341 343 345 344 342 340 336 337 342 342 342 341 342 338
340 342 342 344 346 350 349 349 351 350 350 349 349 348 349 349 347 348 346 347 348 346 342 337 344 344 343 343 342 341 339 340 342 342 341 341 341 335 338 340 338 340 341
341 342 344 346 349 351 352 351 350 351 350 349 349 349 349 347 347 346 347 346 347 348 348 343 338 342 344 343 343 343 343 342 339 341 342 342 342 342 340 336 338 337 339
347 347 348 349 349 350 349 351 351 350 350 348 350 347 349 348 347 346 346 345 346 347 348 348 347 344 344 343 344 344 343 341 340 339 339 340 340 339 341 340 339 339 337
344 349 350 350 352 350 350 350 349 350 349 350 349 345 347 348 347 346 345 344 344 347 347 347 349 349 347 343 342 344 344 343 342 342 341 341 341 341 340 340 339 339 339
350 351 351 351 351 349 351 351 351 350 348 348 350 347 346 346 346 346 345 343 343 346 347 347 348 349 350 347 345 344 343 343 342 343 342 342 342 341 341 342 341 340 340
350 351 351 350 351 351 351 351 350 349 350 350 350 349 351 347 346 345 345 344 343 343 344 345 346 351 351 349 346 345 345 344 344 344 344 343 342 341 341 340 339 340 339
349 349 350 349 350 350 345 349 350 350 349 348 348 347 352 355 346 346 346 345 346 346 345 349 347 343 347 349 345 346 345 343 343 344 345 344 344 343 343 343 343 343 342
348 347 347 347 347 347 348 348 348 349 350 348 348 346 346 347 353 353 346 347 349 349 348 349 344 346 346 348 348 348 343 342 342 345 344 344 344 345 345 344 345 343 341
346 345 347 348 350 350 351 351 350 350 350 348 348 348 346 346 346 351 350 347 345 343 344 347 346 348 346 346 347 340 340 340 340 338 337 338 339 339 339 340 340 339 338
344 346 346 347 347 349 350 351 350 349 349 348 347 346 346 348 347 347 352 346 346 341 341 343 344 344 345 342 339 338 337 336 335 335 335 336 336 337 338 339 339 339 340
343 346 347 347 348 348 349 349 349 349 348 348 349 348 348 348 348 350 349 345 345 343 338 339 339 340 339 338 337 335 334 334 335 335 335 335 335 335 335 335 336 336 336
343 344 346 345 346 347 347 346 345 346 346 348 348 348 349 348 349 351 348 346 346 344 341 335 335 336 336 334 334 333 333 333 333 333 333 333 333 334 334 333 333 333 334
342 343 342 343 343 344 343 345 345 345 346 346 347 347 348 347 346 344 341 345 344 347 343 335 331 331 332 333 332 330 331 332 332 332 332 331 330 330 330 330 330 330 330
342 342 342 342 342 341 342 343 343 341 342 343 344 345 346 347 348 348 344 343 342 345 344 334 329 329 330 329 328 328 328 329 329 329 329 329 328 328 327 327 328 328 328
341 342 341 341 342 341 341 341 341 339 338 339 340 341 342 344 344 346 347 347 346 344 335 327 326 326 325 326 326 325 324 323 325 326 325 325 324 324 324 325 325 326 326
341 340 340 340 339 339 339 338 338 338 337 336 338 339 340 340 340 342 343 344 345 344 337 326 323 322 322 322 322 322 320 320 320 322 322 322 322 321 321 320 320 321 322
339 339 338 338 338 337 337 337 337 337 336 335 336 336 336 337 337 338 339 339 340 339 335 328 322 321 320 321 321 321 321 321 321 322 321 319 317 316 314 314 314 314 316
339 339 338 337 336 336 335 334 335 335 335 334 333 332 331 333 336 337 336 338 336 332 329 325 323 322 321 320 321 320 318 318 317 317 316 316 316 316 315 313 312 312 311
339 338 338 336 335 334 332 331 334 333 333 333 332 329 326 325 327 333 336 337 336 331 326 324 323 322 321 321 322 322 321 321 318 317 317 318 319 318 317 315 314 310 310
339 339 338 336 334 328 327 327 330 329 329 329 329 329 329 328 325 325 330 332 335 336 333 330 328 328 328 327 325 325 325 324 324 322 323 321 321 320 318 314 310 308 308
339 338 337 337 335 327 324 325 327 328 328 328 327 327 326 327 329 327 325 324 326 328 329 330 330 330 329 327 327 327 326 327 326 324 325 323 321 320 318 314 307 306 306
339 337 337 336 334 326 324 325 329 330 329 329 328 326 322 323 323 324 318 314 315 318 319 320 320 319 322 323 325 325 326 325 324 323 323 323 320 319 317 316 308 304 305
339 336 336 335 333 327 323 326 327 330 329 328 328 326 325 319 320 322 321 317 313 310 307 307 307 306 306 304 309 316 323 316 321 324 323 321 320 318 317 316 313 305 305
339 336 335 335 333 330 323 326 327 329 328 327 326 322 321 320 319 322 323 322 321 320 319 319 317 316 316 313 312 312 313 313 315 321 322 320 321 318 318 317 315 310 306

GFSMA_925_thetae_048.txt.gz
Theta_e
345 345 343 343 342 347 347 346 341 336 348 349 349 348 348 347 347 348 347 348 346 344 343 343 344 344 344 345 344 342 343 343 345 342 340 340 340 342 339 339 340 339 338
340 339 340 341 343 343 344 344 345 348 348 351 349 350 349 349 347 346 348 347 346 345 343 341 343 345 345 344 343 343 340 344 343 342 341 339 338 338 340 340 341 341 341
340 339 339 339 341 346 341 341 346 346 349 350 350 348 348 346 348 348 347 347 347 348 347 344 339 343 343 344 343 342 340 339 341 343 342 341 341 342 339 337 339 339 338
341 340 340 342 344 341 334 336 348 347 346 349 350 349 349 349 348 347 348 346 347 347 347 347 345 338 342 343 342 343 342 340 337 340 339 340 341 341 341 341 339 336 337
340 343 345 346 345 347 349 345 351 351 350 349 346 346 347 347 349 348 346 346 346 347 346 348 348 343 340 342 342 343 343 342 338 339 339 339 339 340 340 340 341 340 339
340 343 345 347 348 348 349 348 349 348 349 349 349 349 349 346 347 348 348 347 346 346 344 345 348 345 346 345 343 343 344 343 342 340 340 340 340 340 341 341 340 340 340
343 348 348 349 349 349 349 349 351 349 350 349 349 347 348 348 349 347 347 346 345 344 343 342 349 348 349 349 345 342 343 343 342 342 342 342 342 342 341 340 340 341 341
346 349 349 348 348 349 349 347 348 349 349 349 348 348 351 349 348 347 348 346 346 345 343 346 348 349 348 347 347 344 343 343 343 343 343 343 343 343 342 341 341 340 337
347 347 347 347 347 347 349 348 347 350 350 348 347 348 352 353 347 347 346 341 346 345 349 348 346 345 343 344 340 344 343 343 342 344 345 345 344 343 343 344 343 343 343
347 347 347 345 346 346 347 346 347 349 348 349 348 347 346 346 351 349 346 347 345 346 345 346 344 343 340 338 340 343 342 341 343 344 345 345 344 343 344 345 344 344 343
346 344 344 347 348 348 349 349 350 349 348 348 349 347 346 344 346 348 349 347 342 342 344 346 346 346 345 344 340 336 340 340 341 341 339 337 337 338 339 339 339 338 338
343 344 345 346 347 347 347 348 346 348 348 348 347 346 345 347 347 347 348 345 342 339 340 342 343 342 341 340 339 338 336 336 336 335 335 336 338 338 338 337 338 338 339
343 344 345 345 346 345 346 347 346 346 346 345 345 346 346 346 346 347 346 344 342 340 337 339 339 339 339 337 335 335 334 335 335 335 334 334 335 335 334 334 334 334 335
342 341 343 344 345 344 344 344 345 346 344 345 346 345 345 345 346 346 346 344 343 343 339 334 335 336 335 334 333 333 333 333 333 332 332 333 332 331 330 330 330 331 331
344 342 341 341 341 342 344 345 342 342 344 344 344 344 345 345 344 344 343 344 343 346 341 334 331 332 333 333 332 331 331 331 331 331 330 330 329 329 329 328 328 328 328
341 341 340 341 340 340 343 342 340 339 339 340 341 342 343 343 345 345 344 343 343 343 341 333 329 329 330 329 329 329 328 329 329 329 328 328 327 326 326 326 326 327 327
341 340 341 341 342 341 341 342 339 338 338 338 339 340 340 342 343 343 343 342 342 342 330 326 327 327 327 328 327 326 325 325 325 324 324 323 323 323 323 323 323 324 324
340 340 340 340 340 339 339 339 339 336 336 337 336 337 337 338 339 339 342 342 341 339 330 325 324 323 323 324 324 324 324 323 324 323 322 321 320 319 319 319 319 319 320
340 340 339 339 338 338 338 338 338 336 335 334 334 334 337 339 336 339 338 338 337 334 330 325 322 322 321 323 323 323 323 323 322 321 319 317 315 315 315 314 314 314 315
340 339 338 337 337 337 335 336 336 336 334 331 327 326 329 333 336 338 338 334 332 329 326 324 322 322 321 321 322 321 320 319 318 318 318 317 318 316 315 314 312 311 312
340 339 338 337 334 332 332 334 334 333 333 332 329 327 324 327 331 334 337 334 330 327 325 324 323 322 322 322 322 323 322 321 320 318 319 320 320 318 317 315 312 310 310
340 339 339 337 331 327 328 330 331 330 330 330 330 329 330 328 325 328 332 334 334 329 328 327 326 326 325 326 325 324 325 324 324 321 322 321 321 320 317 316 308 306 305
340 339 337 337 333 325 326 327 330 330 330 329 328 328 329 327 327 324 324 329 328 329 330 330 330 329 328 327 327 327 326 326 326 324 323 324 322 319 319 317 312 305 304
340 339 338 336 334 325 325 329 331 330 330 330 327 323 324 323 323 316 315 319 318 319 319 323 322 323 323 324 325 325 326 326 325 323 324 324 321 321 318 317 314 305 304
340 338 338 335 334 325 324 329 331 331 330 330 328 326 321 321 322 321 318 313 310 308 311 311 310 308 310 307 310 315 320 322 325 324 323 322 321 318 318 317 316 309 305
339 338 337 335 334 329 324 327 328 330 330 328 325 324 322 319 322 324 324 322 317 313 317 318 317 315 315 313 312 310 314 314 315 321 313 315 318 320 319 318 316 313 307

GFSMA_925_thetae_051.txt.gz
Theta_e
340 346 347 349 346 347 345 343 345 343 338 347 348 349 348 348 348 349 348 348 346 347 343 343 342 342 342 343 345 343 341 337 337 338 339 339 337 340 342 338 337 339 338
346 345 344 342 343 342 343 342 340 343 336 341 346 348 348 348 347 347 347 346 346 345 344 343 343 343 342 342 344 342 341 340 340 343 340 339 339 340 340 341 339 340 340
343 340 339 340 341 341 343 342 342 341 344 345 348 348 349 349 349 350 349 347 346 346 345 346 344 342 343 342 343 342 341 340 339 341 342 341 341 340 339 337 336 340 339
343 340 340 341 345 345 343 337 339 343 346 346 346 347 349 348 347 346 348 348 346 346 346 347 346 345 340 343 342 342 342 339 338 339 340 341 342 340 340 340 340 337 335
340 340 341 342 345 346 346 344 346 343 346 347 347 347 347 348 347 349 348 348 348 347 348 347 347 347 345 340 342 342 342 340 342 338 338 340 339 339 340 340 340 340 341
340 340 340 342 344 347 348 347 347 347 348 348 348 348 348 348 346 346 347 347 347 346 346 347 346 346 346 345 341 341 342 342 343 342 339 340 339 339 340 340 341 340 340
342 345 346 347 347 347 347 348 348 347 346 349 349 348 348 346 347 347 345 347 347 347 346 346 346 344 345 344 345 344 342 342 343 343 342 342 342 342 342 342 342 340 340
346 346 347 347 347 348 347 347 346 348 349 349 348 347 343 344 345 346 346 347 346 346 346 346 346 345 346 345 345 342 340 343 342 342 342 343 343 343 343 343 343 342 341
346 346 347 347 347 346 347 348 348 347 348 348 347 345 344 343 343 346 347 346 345 344 345 346 343 344 346 343 342 341 342 342 340 342 341 343 343 343 343 343 344 344 344
347 346 345 344 344 346 345 347 347 345 347 348 347 346 346 345 342 341 344 345 345 345 343 344 342 343 340 338 337 337 339 339 338 339 343 343 343 342 343 343 344 341 340
345 344 344 344 344 346 347 347 347 347 348 348 347 347 346 344 345 342 340 342 341 342 342 344 343 343 343 343 340 337 339 339 340 341 339 338 339 339 339 339 339 339 339
343 344 344 344 345 345 347 346 346 346 346 345 346 347 346 345 344 344 340 341 339 338 340 339 340 340 339 339 338 338 338 337 336 336 335 337 337 337 336 336 337 336 336
342 343 343 344 345 344 344 345 345 345 344 345 345 345 345 345 345 345 343 342 340 338 337 338 339 337 336 336 335 335 334 335 335 334 334 333 333 333 333 332 332 332 332
341 341 341 342 342 343 345 343 343 344 344 344 344 344 344 344 346 346 344 341 342 340 336 333 335 335 334 333 332 333 333 333 332 332 331 331 330 330 329 329 329 329 329
341 340 340 340 340 343 343 340 339 341 341 342 343 343 344 345 343 345 344 342 341 341 337 333 332 333 333 333 331 331 331 331 330 330 329 329 328 327 327 327 327 328 328
339 339 339 339 339 341 341 338 337 338 338 340 341 341 343 343 343 343 343 343 342 340 336 332 329 330 330 329 328 329 329 329 328 327 327 326 325 325 324 325 325 325 325
339 339 339 341 340 340 341 338 337 336 337 337 337 338 339 341 342 343 342 342 341 340 329 327 328 328 328 328 327 326 325 325 325 324 323 322 322 321 321 321 322 322 323
339 339 338 339 338 338 339 335 335 335 335 335 336 337 337 338 338 340 342 342 339 337 329 325 324 324 324 325 325 325 324 323 323 321 320 319 317 317 316 316 317 318 320
339 339 339 337 337 337 338 337 334 333 331 331 335 336 336 337 337 337 338 336 334 331 328 325 322 323 322 324 324 323 322 322 322 319 316 316 316 315 315 314 314 314 315
339 338 337 337 335 335 335 335 335 330 324 324 328 332 335 337 339 334 334 333 331 329 327 325 323 322 323 322 322 322 321 321 319 318 317 318 318 318 316 313 312 312 311
339 338 337 337 334 333 335 333 334 332 330 328 325 325 330 332 335 336 332 331 329 327 325 323 323 323 322 322 322 322 321 320 319 318 318 318 319 317 317 313 308 306 306
339 338 338 331 329 330 331 331 331 330 330 329 329 328 325 325 331 334 333 330 330 329 327 325 324 324 324 324 324 324 323 323 322 321 320 320 320 319 318 316 310 305 304
339 337 336 334 331 327 328 329 329 329 329 328 330 327 327 325 324 328 330 332 331 330 328 328 327 327 327 326 325 325 325 325 326 323 322 322 321 320 319 317 312 305 304
339 338 336 335 330 325 328 330 330 330 329 326 324 325 324 321 314 322 325 324 323 324 327 327 327 325 325 324 325 323 325 326 326 324 323 323 322 320 319 317 315 308 305
339 339 337 335 333 324 327 331 331 330 329 328 325 321 322 322 319 312 311 309 309 311 310 309 309 310 308 308 314 316 314 314 323 323 320 322 321 321 320 318 315 312 307
340 338 337 335 334 326 325 329 330 331 329 327 326 325 320 321 321 321 320 318 316 318 318 315 313 313 313 313 311 309 312 314 319 312 310 314 314 319 318 317 316 315 310

GFSMA_925_thetae_054.txt.gz
Theta_e
346 341 339 348 347 345 346 345 344 341 338 342 348 348 348 349 345 345 346 347 346 344 347 343 342 340 339 338 339 338 335 333 332 334 339 340 337 341 341 341 338 338 337
342 346 347 347 344 346 343 340 340 341 341 338 339 348 347 348 348 346 348 347 346 345 346 343 343 342 342 342 340 341 339 337 336 336 338 341 340 338 340 341 340 338 341
346 345 344 342 341 342 341 342 342 339 342 341 344 346 347 348 348 348 348 347 347 345 345 344 345 343 342 342 342 342 340 338 338 339 342 342 338 338 338 338 336 339 340
345 342 339 339 340 342 343 343 340 337 339 340 344 344 345 348 347 346 347 347 347 346 345 345 346 345 344 341 342 342 342 341 339 338 338 340 341 340 339 339 340 339 337
343 341 340 339 340 342 345 344 341 345 340 344 345 345 345 346 346 347 347 346 348 348 346 346 345 346 346 346 341 342 342 342 342 339 339 338 338 339 339 340 339 340 340
340 339 339 341 343 344 345 346 346 346 344 345 347 348 347 347 347 347 346 347 346 347 347 346 347 346 346 346 345 341 340 342 341 342 343 341 339 340 339 339 340 340 340
340 340 339 338 341 346 346 347 347 347 347 347 348 348 347 346 347 346 346 346 345 345 346 346 345 345 345 345 343 343 342 342 342 342 342 342 342 342 342 341 342 342 341
342 345 346 346 346 347 347 347 347 347 347 347 347 345 341 342 342 344 346 346 346 345 345 345 345 344 345 344 343 344 344 343 341 342 342 342 342 342 342 342 342 343 342
346 345 345 346 346 346 346 348 347 347 346 345 347 345 341 342 340 344 345 345 345 344 344 344 344 344 343 342 342 344 343 339 340 341 338 339 341 342 342 342 343 343 343
346 345 345 344 344 346 346 345 346 346 347 346 346 346 345 344 339 339 342 343 343 344 343 342 336 342 341 342 340 340 341 341 340 339 339 341 341 340 340 341 340 340 339
343 343 342 343 344 345 345 345 346 346 346 347 347 346 346 346 345 339 339 340 341 342 342 342 339 342 343 339 339 339 340 340 339 339 340 340 339 339 338 338 339 339 338
344 344 344 344 344 345 345 345 345 345 345 345 345 346 346 343 342 341 339 339 338 337 340 340 340 339 338 339 338 338 337 338 338 337 337 337 336 336 336 336 335 335 335
344 343 344 344 343 344 344 344 344 344 344 344 344 345 345 344 345 343 340 340 339 338 336 338 338 338 337 336 335 335 334 335 334 334 334 334 333 333 332 331 331 331 331
341 341 341 342 343 344 343 343 343 343 342 343 343 344 344 345 345 345 341 340 340 339 334 333 335 334 333 332 332 332 331 332 331 331 331 330 329 328 328 328 328 328 328
340 340 340 342 343 343 339 339 341 340 341 342 343 343 344 343 344 345 343 340 339 341 335 333 332 333 333 332 331 331 331 330 330 329 328 327 326 326 326 326 326 326 326
339 339 338 339 341 339 337 337 338 338 339 339 341 342 343 343 343 343 343 341 340 338 335 331 330 330 330 329 329 329 329 328 327 326 325 324 323 323 323 323 323 323 325
339 340 340 340 340 339 337 336 336 336 337 337 338 339 341 342 342 343 343 342 341 338 329 327 328 328 328 327 326 325 325 325 323 322 321 321 320 320 320 320 320 321 323
338 337 338 338 339 336 334 335 335 335 335 336 337 337 338 339 341 341 341 341 340 336 330 326 325 325 325 325 325 324 323 322 321 319 318 317 316 316 316 316 316 317 320
339 339 338 337 338 336 334 333 332 331 334 335 336 336 337 337 337 337 338 338 335 331 328 326 323 323 323 323 323 322 321 320 318 316 316 317 316 316 313 312 313 313 314
338 337 336 336 336 337 335 331 324 326 330 332 334 336 337 334 334 335 334 333 331 329 329 327 324 323 323 322 322 322 321 320 319 317 317 317 317 315 312 309 307 307 307
338 337 336 335 334 334 335 332 327 325 324 326 330 332 334 336 332 332 332 330 330 326 325 324 323 323 322 322 322 321 320 319 318 317 318 318 318 317 315 311 306 304 304
338 336 336 335 332 334 333 333 331 329 328 326 324 326 330 335 334 330 330 330 330 330 327 325 324 323 323 324 324 322 321 321 321 319 318 319 320 319 317 314 307 305 304
338 338 334 330 329 331 331 330 330 330 330 329 327 326 324 327 331 332 330 328 328 328 328 328 326 324 324 324 324 323 323 323 325 323 320 321 321 320 319 318 313 306 305
339 338 332 331 328 328 329 329 328 328 327 329 327 325 321 322 326 328 328 328 329 329 329 328 327 327 326 326 326 326 325 325 325 323 321 322 322 321 320 319 316 309 305
339 335 335 333 326 326 330 330 329 328 326 323 323 323 321 315 319 320 321 311 313 309 311 316 310 307 308 314 318 320 320 322 322 323 323 323 321 322 320 319 318 314 308
333 337 334 334 331 325 329 330 330 329 328 327 321 321 321 321 318 313 312 314 316 313 310 311 312 312 312 310 308 312 313 318 318 314 313 315 314 319 318 317 317 316 313

GFSMA_925_thetae_057.txt.gz
Theta_e
348 343 346 345 343 347 347 347 348 346 345 347 347 346 346 347 348 343 345 346 344 346 345 347 343 340 339 340 340 336 341 340 333 333 339 342 340 339 339 342 340 336 336
347 345 342 338 347 346 345 345 343 342 342 340 340 344 346 347 348 347 347 346 346 346 344 346 344 342 342 341 340 339 337 335 336 334 334 340 341 338 340 339 341 340 339
347 343 344 347 347 344 345 342 341 342 340 341 338 343 346 346 347 347 347 347 347 346 344 345 344 343 342 341 342 341 341 339 337 337 337 338 339 339 338 338 339 339 339
346 344 345 344 342 341 341 342 343 342 340 338 339 342 345 345 347 345 346 346 345 347 345 344 344 344 343 342 341 341 342 342 341 338 337 337 339 339 339 339 339 339 339
345 345 342 340 339 341 342 343 344 342 340 342 341 344 344 344 345 345 346 345 346 346 347 346 344 344 344 344 344 342 341 342 342 342 341 339 339 339 338 339 339 339 339
344 343 341 339 340 340 343 345 345 345 345 342 343 347 347 346 346 346 345 345 346 345 345 346 346 346 345 345 344 345 342 341 341 341 341 341 341 340 339 340 339 339 340
341 340 339 339 339 341 341 345 346 347 346 346 346 347 347 346 345 346 346 346 346 346 345 344 344 345 345 345 345 345 343 343 341 341 341 342 342 342 342 341 341 341 341
340 340 340 340 340 344 346 347 347 347 346 346 346 344 340 340 343 344 344 345 346 346 344 345 344 344 344 344 343 344 344 344 343 342 342 341 341 341 340 339 339 340 341
342 344 346 346 347 347 346 347 346 346 346 345 347 344 339 341 338 340 341 343 345 344 344 344 344 344 344 343 343 342 343 344 341 341 340 340 339 341 342 341 342 341 341
344 344 345 345 346 346 346 346 346 346 347 346 345 346 344 343 337 338 341 341 342 342 341 340 341 342 342 342 342 342 341 341 341 340 339 338 339 339 339 340 340 340 339
344 343 343 343 344 344 344 344 344 344 345 345 346 345 345 345 344 338 342 340 340 341 340 339 338 341 340 337 339 340 340 340 338 338 339 340 340 339 338 337 337 337 337
342 343 344 344 344 344 345 345 345 345 345 345 345 346 345 343 341 339 340 339 338 337 339 339 340 339 339 337 338 339 337 337 338 338 338 338 337 336 336 334 334 334 334
342 342 344 344 344 345 344 345 344 344 344 344 343 344 345 345 343 341 339 339 338 337 336 337 337 338 337 336 335 336 335 335 334 335 335 334 333 332 331 331 330 330 331
341 342 342 342 344 344 343 343 343 343 342 343 343 343 344 344 344 343 340 339 339 337 334 333 334 334 334 333 332 332 332 332 331 331 330 329 329 327 327 327 327 327 329
340 340 341 342 344 341 340 342 341 341 342 342 343 343 343 344 345 344 341 339 338 339 335 332 331 331 331 330 329 329 329 330 329 329 327 326 326 325 325 324 324 325 327
339 339 340 341 339 337 337 338 339 339 340 341 342 342 342 343 344 345 341 340 339 336 335 331 329 329 329 328 328 329 328 328 326 325 324 323 323 322 322 322 322 325 327
339 339 339 340 339 337 336 336 336 336 336 337 339 341 341 342 342 343 341 340 338 337 330 328 328 328 327 326 326 326 325 324 322 322 322 320 319 319 319 319 319 321 324
339 339 339 338 339 335 335 335 335 335 336 336 337 338 339 341 341 342 340 340 338 336 332 327 326 326 326 325 324 323 322 321 320 318 317 316 316 316 316 315 316 318 321
337 338 337 338 337 334 333 333 333 334 334 335 336 337 337 338 339 340 340 339 335 333 331 327 324 324 323 323 322 321 320 317 316 315 315 315 314 311 310 310 311 314 317
338 338 337 337 336 335 333 326 327 331 333 334 335 335 333 334 336 336 336 334 331 329 328 326 324 323 322 322 322 322 320 319 316 316 316 315 313 311 308 307 306 306 306
338 337 335 335 336 335 333 325 324 329 331 332 333 335 334 331 333 333 333 331 328 326 325 325 324 323 322 321 322 322 321 318 317 317 317 317 317 315 310 306 305 304 304
337 336 336 334 334 334 334 330 325 324 324 328 330 333 334 331 329 330 330 330 330 328 327 325 324 323 323 323 322 321 319 319 319 317 318 318 318 317 316 311 306 305 304
337 336 336 334 332 333 333 332 329 327 327 326 324 326 331 332 329 328 328 328 329 329 329 329 327 325 324 324 323 322 320 322 323 320 318 320 320 319 318 317 313 306 305
338 337 333 332 329 332 331 331 330 329 329 328 327 323 324 329 330 329 328 328 327 326 326 326 326 324 324 324 323 323 323 324 324 322 320 321 321 320 320 319 318 314 306
336 336 335 327 327 329 329 329 328 327 327 329 325 322 317 324 325 326 326 327 326 326 327 327 325 323 320 323 324 323 324 324 322 322 320 322 321 321 320 320 319 317 312
333 336 334 329 325 326 329 329 329 328 325 324 323 322 317 318 318 315 310 313 307 306 308 307 308 309 309 309 313 315 318 319 319 315 318 319 319 319 318 318 317 317 316

GFSMA_925_thetae_060.txt.gz
Theta_e
347 346 347 347 346 346 343 345 347 347 345 345 344 345 345 344 342 339 340 345 345 345 344 344 345 341 338 339 338 337 339 343 342 335 342 343 340 336 337 340 341 340 334
343 346 347 347 344 343 347 347 345 345 340 340 343 346 346 346 347 347 342 344 345 345 345 345 344 344 342 342 340 340 339 343 344 339 331 336 340 339 337 341 341 340 339
344 345 343 342 339 345 345 345 343 341 341 341 340 338 341 342 346 347 346 346 346 346 346 345 344 343 342 342 342 341 341 340 340 338 335 333 335 341 341 338 337 339 338
343 344 343 339 343 345 345 345 342 341 342 341 338 340 340 344 346 346 346 346 346 345 346 344 344 343 343 342 342 341 341 341 341 341 339 336 335 338 338 337 338 339 338
341 345 344 344 345 343 341 341 341 342 342 339 340 340 341 343 344 345 345 346 345 345 345 346 345 343 343 343 343 342 342 341 341 341 341 340 340 339 339 339 339 339 339
343 344 343 343 341 340 340 342 342 343 344 342 343 341 344 345 345 345 345 345 345 346 345 345 346 346 344 344 344 343 343 344 341 341 341 342 340 340 339 339 339 340 339
343 343 343 342 340 339 339 340 344 345 345 344 343 345 345 345 345 346 346 345 345 345 346 346 344 344 344 344 345 345 344 344 343 341 340 341 342 342 342 341 341 341 341
341 341 340 339 339 339 340 341 343 346 346 345 345 343 345 341 343 342 343 344 345 345 346 345 344 344 344 344 344 344 344 343 343 343 342 341 341 341 341 339 338 338 337
340 340 341 343 343 340 341 344 346 347 346 345 346 343 343 343 340 340 341 342 344 345 344 344 344 344 344 344 344 344 343 342 344 343 342 341 340 340 339 340 341 342 341
344 344 344 344 345 345 346 346 346 346 346 344 345 346 343 341 341 343 340 341 341 342 342 342 342 342 341 343 343 342 341 341 340 340 339 339 338 339 339 339 339 339 339
344 343 344 344 344 346 346 346 345 345 345 346 345 344 345 344 341 340 343 340 340 340 340 338 339 340 338 339 340 341 340 339 339 339 339 340 340 339 338 338 337 336 337
342 343 343 344 343 343 344 344 344 345 345 345 345 345 344 343 342 341 342 340 338 336 338 339 340 338 338 339 339 338 337 338 338 338 338 339 338 337 336 335 334 334 333
341 342 343 344 344 344 345 344 344 344 344 344 344 343 344 344 342 342 339 339 339 337 335 336 337 337 336 336 336 336 336 336 335 335 335 335 334 332 331 332 333 335 335
340 342 342 342 343 344 343 344 343 343 343 343 342 342 343 345 344 342 339 338 339 336 334 333 333 334 334 333 333 333 332 332 332 331 330 330 328 327 327 327 328 330 330
340 340 340 342 343 342 341 342 341 341 341 341 342 343 343 344 344 343 340 339 338 339 336 332 330 331 332 331 330 330 329 329 329 328 327 326 325 325 324 324 326 327 328
339 339 340 342 342 338 337 338 339 339 340 341 341 342 342 342 343 344 341 339 338 336 337 331 329 328 329 329 328 328 328 327 326 325 324 323 322 322 322 322 326 326 325
339 338 338 340 338 337 336 336 337 336 336 338 340 340 341 342 343 344 342 339 338 336 330 327 328 326 327 328 327 326 325 324 322 321 320 319 319 319 319 320 323 323 324
338 339 339 339 338 335 334 335 335 335 335 336 337 339 339 341 341 342 341 339 338 336 332 327 325 325 324 324 324 322 321 320 318 317 316 316 316 316 315 317 318 320 321
337 338 338 338 337 334 333 333 333 334 334 335 336 336 336 338 339 339 339 339 337 335 333 328 325 324 322 322 320 319 319 317 315 315 316 314 312 311 310 311 314 317 317
337 337 337 337 336 334 332 326 327 332 333 334 335 333 332 335 337 338 338 336 334 333 330 327 325 323 322 321 321 319 317 315 315 315 314 311 311 308 307 306 306 306 306
338 337 336 336 336 335 333 324 329 331 332 333 335 334 331 333 333 333 335 332 332 331 327 326 324 323 322 321 322 321 320 319 316 316 315 314 312 308 306 305 304 304 303
338 337 336 335 335 334 334 326 323 326 328 330 332 333 331 329 330 330 331 330 328 329 327 325 324 324 323 323 323 322 320 317 318 318 317 316 316 314 310 306 306 304 304
338 337 335 334 334 333 334 330 326 325 324 324 326 331 331 328 328 329 328 328 328 328 329 329 327 326 325 325 324 321 320 319 321 319 318 318 318 318 317 314 308 306 304
337 337 336 335 331 332 333 332 330 327 327 327 326 323 327 329 328 327 327 328 328 328 327 328 328 327 326 325 324 323 321 322 323 320 318 322 320 319 319 318 316 312 307
336 337 337 336 332 328 331 331 331 329 329 328 327 324 321 327 328 328 327 326 326 326 325 325 325 324 324 323 323 323 322 323 322 321 318 321 321 321 320 319 318 317 314
337 335 333 334 335 327 326 329 329 328 326 327 326 323 317 322 325 325 325 326 325 325 326 323 319 315 316 322 324 322 323 323 320 320 320 321 320 319 320 319 319 318 317

GFSMA_925_thetae_063.txt.gz
Theta_e
350 349 347 349 350 351 350 350 349 348 348 347 347 347 347 345 346 344 344 341 344 344 345 343 344 344 341 337 338 340 340 343 342 337 339 341 341 337 333 340 341 340 336
345 344 343 345 349 350 349 348 350 350 348 346 346 346 347 348 348 348 346 345 345 344 345 344 345 344 343 343 341 339 339 342 342 342 337 337 344 343 339 337 341 341 340
342 342 343 344 348 348 345 347 347 345 346 345 345 345 344 346 347 350 350 348 347 345 345 345 345 344 343 342 342 342 341 341 340 342 341 335 332 333 338 340 338 335 337
339 341 340 344 345 345 348 348 347 345 344 344 344 344 344 345 346 349 350 350 349 349 347 346 345 343 343 342 342 342 342 342 341 341 341 339 337 335 334 335 336 337 339
342 342 342 343 342 345 348 347 346 345 344 345 345 343 343 344 346 347 349 350 350 349 349 348 346 344 343 342 343 343 342 342 342 341 341 341 339 338 336 338 337 339 339
342 342 343 343 344 345 343 344 344 345 344 345 346 345 346 346 349 348 348 349 349 350 349 350 346 347 346 345 343 343 343 342 343 343 341 341 341 341 340 340 339 338 339
343 342 343 343 343 342 344 345 345 345 346 345 343 346 347 347 348 348 346 346 349 349 349 350 350 348 348 346 345 344 345 344 343 343 341 340 341 341 341 341 340 341 340
343 344 343 342 342 344 344 344 345 347 347 344 343 344 350 346 346 345 344 344 348 349 349 350 350 347 349 348 347 344 343 344 343 342 343 341 341 342 341 340 340 340 339
341 341 342 343 344 343 343 344 345 346 347 344 343 346 351 347 346 344 342 342 343 345 345 345 345 344 344 345 346 345 344 344 343 343 342 341 341 341 340 339 339 339 340
341 342 343 343 345 345 345 344 345 348 347 345 347 348 346 345 347 347 343 341 341 342 342 343 343 342 343 344 344 343 342 341 342 342 341 341 340 339 340 339 339 340 340
343 340 335 342 344 345 345 344 345 344 344 345 346 346 347 344 344 345 345 342 340 340 341 340 340 342 342 343 342 341 340 340 340 339 339 339 339 340 339 339 338 338 337
345 342 341 343 343 343 344 345 345 347 348 347 347 347 346 346 346 346 346 343 340 336 338 339 339 339 340 340 340 340 339 339 339 340 341 341 339 338 337 336 335 334 334
345 344 344 343 344 344 344 344 345 346 347 347 347 347 346 346 346 346 346 342 340 336 335 336 338 338 338 338 337 337 336 337 337 338 338 337 336 334 332 333 334 337 336
344 342 344 344 344 344 344 344 345 346 346 346 345 345 345 344 346 345 344 343 341 336 334 332 334 335 334 334 334 334 334 334 334 334 333 331 329 328 328 332 332 333 331
342 342 342 344 344 343 341 342 342 341 342 343 345 344 345 345 346 346 344 343 340 342 337 332 331 331 332 332 332 331 330 330 329 328 327 326 326 325 326 327 328 328 326
341 341 343 344 343 340 340 339 340 340 340 342 342 343 343 342 344 344 344 343 341 338 338 331 329 329 330 330 329 329 328 327 326 325 324 323 323 323 325 326 326 326 325
340 340 341 342 340 339 336 337 339 338 339 339 340 341 342 341 342 343 344 344 338 336 331 328 328 328 328 329 328 327 326 326 323 322 321 321 320 320 322 324 324 324 324
338 340 341 341 340 338 336 337 337 337 337 338 339 341 342 342 342 342 342 341 338 336 332 327 325 325 326 325 325 323 322 324 322 318 318 318 317 317 317 319 321 322 321
340 340 340 340 339 336 335 335 335 335 336 336 338 339 339 341 340 340 343 339 337 336 334 328 324 324 322 323 321 320 320 319 319 315 316 315 313 312 314 316 316 317 317
340 340 339 340 338 336 335 330 330 334 335 335 336 335 336 338 339 338 339 337 335 333 331 327 324 322 321 321 321 319 319 318 316 316 316 315 311 309 308 308 307 307 306
340 338 337 339 338 336 334 329 331 333 334 335 335 335 334 334 334 336 336 335 334 332 328 326 324 322 321 320 321 320 319 316 317 318 317 316 313 313 310 307 305 304 303
338 337 336 336 338 336 334 330 327 331 332 334 335 333 331 330 331 331 332 332 332 331 329 327 326 324 323 322 322 321 319 319 322 319 320 318 315 314 314 313 307 304 304
338 337 336 335 334 336 334 331 326 328 328 328 332 333 330 328 330 330 330 328 328 329 330 332 331 329 327 325 324 322 322 323 326 322 322 321 318 318 315 310 306 305 305
341 340 336 335 334 332 332 332 329 328 329 329 326 327 331 330 329 330 330 330 330 329 328 328 330 330 328 327 326 325 324 325 326 322 322 323 321 321 319 318 310 307 305
339 338 337 336 335 332 329 332 330 331 329 330 328 324 326 329 328 327 329 329 329 327 327 327 328 328 327 326 327 326 326 326 327 325 321 324 323 323 321 320 318 313 308
338 337 335 335 335 335 333 328 331 332 331 330 328 325 321 325 326 326 328 328 329 327 325 324 324 324 323 323 323 326 326 325 326 326 324 323 324 323 322 320 320 318 314

GFSMA_925_thetae_069.txt.gz
Theta_e
352 350 349 348 349 350 351 350 350 352 350 349 349 349 346 346 345 346 346 347 346 344 344 344 345 344 343 341 340 338 338 345 342 341 337 342 342 345 342 337 342 341 342
351 349 349 347 348 350 350 350 350 351 351 350 349 349 349 348 345 345 345 348 346 343 343 343 344 345 344 345 342 341 338 342 344 344 342 340 337 341 341 342 340 340 341
350 349 348 347 347 349 352 350 349 352 351 350 348 350 347 347 347 347 346 345 348 345 345 342 343 344 344 344 344 344 343 342 341 340 340 340 341 339 336 342 343 342 341
351 350 349 347 347 350 350 350 350 351 350 349 347 347 348 347 348 347 347 348 349 350 348 346 346 343 343 344 344 343 342 342 343 342 341 341 340 334 335 335 334 334 336
349 351 347 346 347 349 350 350 350 350 350 348 346 346 346 346 346 346 347 349 348 350 350 349 349 348 346 344 343 343 342 342 342 342 342 342 341 341 337 336 337 334 338
346 342 343 345 338 345 346 349 350 348 349 347 346 346 347 347 347 348 347 348 348 353 348 343 350 350 349 347 344 342 342 342 342 342 342 342 342 342 341 341 340 338 337
347 346 343 348 349 345 347 351 352 351 348 346 346 346 346 347 345 347 349 351 352 353 352 349 349 350 353 350 347 346 344 343 342 343 343 343 343 342 341 341 340 341 340
350 350 349 344 346 344 343 346 345 346 346 346 348 350 347 347 345 349 349 350 351 351 349 351 351 352 353 350 349 346 346 345 344 343 344 344 343 342 341 341 341 341 341
349 348 346 343 341 343 343 344 348 349 349 348 351 348 349 352 345 347 350 349 348 348 349 350 351 351 353 353 351 348 347 346 345 343 342 343 343 342 341 342 342 341 340
348 349 349 344 343 342 346 343 344 349 349 349 351 348 346 343 346 348 348 348 347 348 348 348 348 349 349 350 349 347 344 343 344 343 343 342 342 342 342 341 341 340 338
347 343 341 341 342 344 349 349 350 348 349 349 350 346 343 343 342 347 348 348 345 343 343 345 346 346 347 348 347 343 341 342 342 342 342 341 341 339 340 339 339 338 339
347 344 339 332 336 336 341 344 345 346 347 346 344 344 342 349 349 348 352 349 346 338 340 339 341 343 344 344 342 340 340 340 340 340 339 339 340 340 339 339 338 338 338
347 347 347 347 340 341 341 345 347 347 345 347 346 346 347 347 348 348 348 349 345 338 336 337 339 340 342 342 339 339 339 340 340 340 340 340 339 338 336 335 337 337 337
345 349 348 348 349 347 341 344 347 349 349 349 349 349 349 347 347 350 349 349 344 339 335 334 336 337 338 337 336 337 338 339 340 340 339 337 336 334 335 338 338 337 336
344 345 345 345 347 348 348 344 342 341 344 344 344 345 346 346 347 347 350 346 345 344 338 333 333 334 335 335 335 335 335 335 335 335 334 332 330 331 333 334 334 333 333
346 344 343 343 346 346 345 346 346 345 345 347 346 347 348 347 345 346 348 347 344 345 342 335 332 333 333 334 334 333 331 330 329 328 327 327 327 329 329 329 328 328 328
346 345 344 346 345 345 344 344 344 344 343 345 345 345 346 347 347 346 350 346 345 345 342 331 331 331 332 332 332 331 331 329 326 325 325 324 325 326 327 327 326 325 325
345 345 343 343 343 343 342 343 341 340 341 342 343 343 344 345 347 348 349 347 345 344 340 332 329 329 330 330 331 331 331 330 327 323 322 323 324 325 325 325 324 324 323
345 344 343 343 342 342 341 341 341 341 341 341 341 343 343 344 345 347 348 349 345 343 338 331 328 327 327 328 329 331 330 328 327 320 320 319 320 322 323 323 323 322 321
345 345 344 343 342 342 340 339 337 337 340 340 341 341 341 342 344 345 346 346 345 342 338 330 328 326 326 327 327 328 328 326 322 322 320 320 317 317 318 319 319 318 317
344 344 344 343 343 341 340 340 338 337 339 339 340 340 340 337 338 341 342 345 342 339 335 332 327 325 324 324 326 329 329 328 324 324 322 319 319 317 315 313 311 308 305
345 344 344 343 342 341 336 335 332 337 338 339 339 338 339 334 333 335 339 341 341 339 335 333 330 328 327 326 328 328 327 326 326 324 324 321 320 318 316 315 311 305 304
347 346 345 344 343 340 337 336 331 334 336 336 337 338 336 334 335 336 333 337 339 339 338 336 333 330 327 327 328 325 325 328 328 322 322 324 323 321 319 317 315 307 305
349 347 347 345 344 341 336 334 332 330 334 335 334 336 337 337 336 336 336 336 336 335 334 334 333 332 331 329 328 329 328 327 325 327 324 327 325 323 321 319 316 308 306
348 346 345 345 344 340 335 335 333 330 334 335 335 334 333 335 334 332 336 336 335 335 333 334 334 335 334 332 330 327 327 327 327 327 327 329 324 324 321 320 318 310 307
346 344 344 343 342 340 336 333 333 331 333 335 334 334 331 331 333 325 333 334 334 334 332 330 330 331 333 332 329 329 330 328 329 331 329 328 327 326 324 323 317 315 308

GFSMA_925_thetae_072.txt.gz
Theta_e
349 350 349 351 349 351 349 349 349 350 349 349 350 350 350 349 346 346 347 346 346 345 343 343 343 344 343 341 337 335 336 342 342 340 338 337 344 343 343 340 335 342 340
350 350 349 349 347 348 350 349 349 350 349 348 348 348 347 347 347 345 347 347 347 346 343 342 342 343 344 344 344 342 340 339 343 345 343 341 338 337 341 341 342 340 338
350 350 347 349 349 350 351 350 350 349 348 351 349 350 350 348 347 348 346 349 348 347 344 344 342 342 343 344 344 343 342 341 338 341 341 343 341 341 337 340 341 343 342
350 348 351 350 347 350 348 351 349 350 351 350 349 348 348 347 348 347 347 346 347 349 348 348 344 342 343 343 343 343 343 343 343 342 341 340 339 340 338 335 335 334 335
347 349 349 349 348 350 350 349 349 350 346 347 349 346 346 347 346 346 347 347 346 347 348 349 347 345 345 345 343 343 342 342 342 342 342 342 342 341 340 336 334 337 337
351 348 350 347 346 346 348 349 348 350 349 350 349 347 346 346 347 346 346 347 349 351 350 350 348 345 343 343 346 344 342 342 342 342 342 342 342 342 342 341 341 339 339
350 346 343 345 342 338 337 344 348 347 348 349 346 346 348 349 347 347 345 350 348 348 339 351 348 347 349 347 340 346 344 343 342 342 342 342 342 342 342 341 341 341 340
347 348 347 343 347 349 345 343 346 350 349 346 346 347 351 346 347 345 348 349 348 349 348 350 348 350 350 350 349 348 347 344 341 344 343 343 344 343 343 342 341 341 341
347 347 348 349 346 347 343 341 342 343 343 343 347 346 350 349 348 344 345 348 348 346 348 348 349 348 348 349 350 349 347 346 346 345 344 342 343 343 342 341 341 341 341
348 346 347 346 344 341 342 342 342 343 344 346 346 346 347 343 348 346 343 338 347 347 347 347 347 346 346 347 348 348 347 345 345 344 343 343 343 342 341 341 341 341 340
348 348 346 347 344 343 344 345 346 346 345 346 347 347 348 347 342 344 345 343 344 343 342 343 344 344 345 346 348 343 342 343 343 343 343 342 342 341 340 339 338 339 338
348 345 342 341 342 342 342 340 341 343 345 347 346 347 344 344 345 344 346 347 346 340 338 339 340 343 345 344 342 341 341 342 342 342 341 340 339 339 339 338 338 338 339
348 346 340 335 332 334 336 339 342 342 343 343 343 343 343 342 339 344 346 347 345 338 337 338 340 342 343 341 340 339 340 340 340 339 340 340 340 339 338 338 338 338 338
343 345 346 346 346 346 342 341 346 345 346 346 348 348 347 347 346 346 346 347 345 339 336 335 336 339 340 339 337 339 340 340 340 340 340 339 337 336 335 336 336 337 337
346 346 345 345 344 349 346 341 338 341 338 342 343 343 343 343 343 344 345 346 343 342 338 334 334 336 336 336 335 336 337 338 338 338 336 335 333 335 337 337 337 336 336
347 346 344 344 345 348 343 343 345 342 341 340 340 344 346 346 347 345 346 346 346 343 340 334 333 334 335 336 336 335 335 334 333 331 330 330 330 332 333 333 333 333 331
347 345 344 345 346 345 344 343 342 342 343 343 343 344 344 345 345 346 344 344 345 344 339 333 333 333 334 334 334 331 330 329 327 326 326 327 328 328 328 328 328 327 327
346 346 345 343 344 340 342 342 341 341 342 342 341 342 341 344 345 344 345 345 345 344 337 333 331 331 332 332 332 332 331 329 326 325 324 325 326 326 326 326 325 325 324
346 345 344 344 343 343 341 341 341 341 341 341 341 340 343 343 344 344 345 346 344 344 338 332 329 329 330 332 332 332 331 329 327 323 322 322 323 324 324 324 323 323 322
346 344 344 343 342 342 342 341 339 337 339 341 339 339 341 342 343 345 345 345 343 341 336 331 329 328 328 330 331 330 329 327 326 321 320 319 320 322 322 322 322 321 321
345 344 344 343 342 342 341 340 339 338 338 340 340 339 341 339 334 341 343 343 342 339 335 330 328 327 327 328 329 329 329 327 324 322 322 320 317 317 317 317 317 316 315
345 345 344 343 343 342 339 337 336 334 338 338 338 339 339 336 332 335 340 343 340 339 335 333 330 327 327 327 328 328 330 329 326 324 323 321 320 318 317 311 309 307 305
346 347 345 346 344 344 341 337 335 330 335 336 337 338 337 338 336 336 335 339 340 339 337 335 331 330 328 328 328 330 329 328 327 327 325 325 321 319 318 316 314 307 305
349 347 346 346 344 343 341 336 333 331 332 334 334 335 336 336 337 338 337 336 335 336 338 337 335 333 331 330 329 329 328 327 327 326 325 323 323 323 320 317 316 314 308
349 346 345 343 346 343 339 336 335 333 331 332 334 335 334 336 335 332 336 336 334 334 334 333 334 334 332 331 329 328 328 327 326 326 326 324 328 325 322 319 317 316 313
347 346 346 344 343 341 339 335 335 333 331 332 334 335 334 332 333 329 329 335 336 335 332 332 333 333 336 334 331 329 329 327 328 329 328 326 329 326 324 321 319 317 310

GFSMA_925_thetae_075.txt.gz
Theta_e
349 350 350 348 348 347 348 351 349 349 349 348 348 348 347 347 349 346 346 347 346 345 344 343 343 342 341 339 335 336 334 336 337 339 337 338 340 342 343 340 334 338 341
347 349 348 349 350 349 350 348 349 348 350 348 348 347 348 349 347 347 348 346 346 346 346 343 342 342 342 343 343 340 337 335 338 344 341 340 338 342 340 342 341 338 336
349 349 350 348 349 348 349 349 349 349 349 347 347 348 348 348 346 346 347 347 347 347 347 344 344 343 342 344 343 343 343 340 339 340 344 343 343 340 338 339 341 342 343
348 349 349 350 349 349 349 349 349 350 348 348 349 348 349 346 346 346 348 347 347 348 348 347 346 345 342 343 343 343 343 342 342 342 340 341 340 341 341 340 337 335 338
349 349 348 349 345 348 348 347 349 349 349 348 349 347 348 348 348 346 346 347 347 348 347 347 348 345 344 345 342 343 343 343 342 342 342 342 341 340 340 340 337 335 336
346 349 347 348 345 347 348 348 348 348 348 346 347 348 348 345 345 347 347 346 347 348 347 348 348 347 345 344 340 340 343 343 343 342 342 342 342 342 342 341 341 339 338
347 345 342 345 346 343 344 347 347 347 349 349 348 347 346 347 345 345 346 346 346 347 346 343 343 347 346 344 344 343 340 345 343 342 342 341 342 342 342 342 342 341 341
347 347 345 345 342 340 339 338 340 347 347 346 345 345 343 343 345 346 345 346 347 348 347 346 348 348 347 348 347 347 338 346 345 343 342 342 342 343 343 342 342 342 341
348 346 344 345 343 343 344 343 341 342 342 342 345 344 342 341 342 345 344 345 346 346 347 347 348 348 347 346 346 347 347 347 346 345 343 344 343 343 343 342 342 341 341
347 346 346 344 345 345 345 342 341 341 343 344 343 344 344 343 339 340 342 336 343 342 342 345 345 345 345 345 347 346 346 346 345 345 344 344 343 343 343 341 341 341 341
347 346 346 345 345 346 344 342 342 342 344 344 342 343 343 346 343 340 339 339 342 342 342 343 343 343 344 345 345 343 343 343 344 344 343 342 342 342 341 340 339 339 340
346 347 344 344 344 343 342 343 343 342 344 346 346 346 346 344 342 341 342 341 341 340 340 339 340 343 344 344 341 341 342 343 343 343 342 342 341 340 339 339 338 338 339
344 343 342 341 338 334 338 337 340 342 342 338 340 344 345 344 343 342 342 343 341 338 337 338 340 343 342 341 340 340 340 341 341 340 340 339 340 339 339 338 338 339 339
344 345 345 340 342 334 333 338 339 338 339 343 343 344 343 342 343 342 342 344 342 338 337 337 339 340 340 339 338 339 339 340 340 340 340 340 338 337 336 336 337 338 339
344 344 343 344 344 345 347 341 340 342 341 340 340 342 343 342 344 344 344 343 343 341 337 335 336 337 337 337 336 338 338 339 340 339 338 336 335 335 336 336 337 338 338
347 346 346 345 344 342 345 344 343 340 338 334 334 333 333 343 343 345 345 344 344 340 337 334 334 336 336 336 336 335 336 337 337 336 335 333 333 336 336 335 336 336 335
345 345 343 344 345 342 342 341 341 342 343 342 342 344 344 344 344 343 344 344 345 344 337 334 335 335 335 336 334 333 333 332 331 330 329 329 330 331 333 333 333 332 331
347 344 344 342 343 343 342 343 341 342 342 342 342 342 342 343 343 343 343 344 344 344 338 333 333 333 334 335 333 330 329 327 327 326 326 327 327 327 327 328 328 327 327
345 345 344 344 341 341 342 342 339 341 339 341 341 341 339 342 344 343 344 343 343 344 339 334 330 331 333 333 332 332 330 329 325 325 325 325 325 325 326 325 325 325 324
346 345 344 343 341 340 341 341 340 338 338 340 340 337 338 341 341 342 342 344 343 339 337 332 330 330 332 332 333 332 328 327 326 323 322 322 323 324 323 323 323 323 322
346 344 343 342 341 340 342 341 339 337 337 338 339 338 339 339 333 335 340 343 341 338 334 330 329 328 329 330 331 329 328 327 325 322 320 320 321 321 322 321 321 320 320
345 345 344 343 342 341 341 339 339 337 338 338 338 339 339 337 332 335 340 342 342 339 334 330 329 328 328 329 330 330 328 327 324 322 322 321 319 318 316 316 316 315 313
344 345 344 343 343 343 341 338 336 333 336 336 337 337 337 339 337 333 337 340 341 339 338 335 331 329 329 330 329 329 329 329 326 325 322 322 321 319 317 316 311 309 307
345 344 345 345 344 344 343 339 335 331 332 335 334 335 336 335 338 337 334 334 335 336 338 336 336 334 333 332 331 330 329 329 327 327 325 324 323 321 320 318 316 309 308
346 347 346 345 344 344 341 340 335 333 331 332 333 334 335 336 334 333 336 335 334 334 334 334 334 334 333 332 330 328 329 327 327 327 326 325 324 322 321 321 319 317 314
347 346 345 344 343 344 341 337 335 334 330 332 334 334 335 332 334 330 331 335 335 334 333 332 332 333 334 333 331 330 329 327 327 327 327 324 324 326 320 322 321 317 316

GFSMA_925_thetae_078.txt.gz
Theta_e
350 349 349 348 347 346 345 346 345 346 344 343 346 347 348 347 346 348 347 346 345 343 344 342 342 340 336 333 336 341 335 336 343 343 342 336 336 339 341 339 332 334 338
348 349 349 349 347 347 345 347 347 348 348 348 348 349 348 347 348 348 347 347 345 345 345 345 343 343 343 342 340 337 336 335 335 337 341 338 335 338 343 342 341 335 337
348 348 348 348 348 348 348 348 348 348 348 347 348 347 346 347 348 347 347 347 346 346 346 346 344 344 343 342 344 343 343 341 338 337 343 344 341 338 337 338 342 339 341
348 347 349 349 348 347 349 349 349 348 348 349 347 347 348 348 348 348 348 346 346 346 347 347 346 345 345 342 343 343 343 343 342 341 340 339 342 342 342 339 337 337 339
347 348 348 348 348 347 348 348 347 349 347 347 347 347 347 348 348 347 347 347 348 347 348 347 347 346 346 343 344 343 342 342 343 343 342 342 341 340 340 340 340 338 336
347 346 346 347 347 343 347 348 346 348 348 346 347 346 347 347 347 346 346 347 346 347 347 347 347 347 347 345 344 344 340 342 341 343 343 342 342 342 342 341 340 340 338
347 347 347 347 347 342 339 346 346 347 347 347 346 346 345 345 346 345 345 346 346 345 346 347 347 346 341 342 345 345 342 340 341 343 342 342 342 341 341 341 341 342 341
348 347 346 343 342 344 344 343 344 345 346 345 345 343 341 342 344 345 344 345 344 344 347 346 343 344 345 344 345 345 345 344 344 343 343 342 342 341 341 342 342 342 342
347 348 347 346 343 344 343 339 338 341 344 345 345 343 341 340 339 344 341 344 345 346 346 345 346 346 347 347 346 345 345 347 341 345 345 344 343 342 342 343 343 342 342
347 346 346 346 342 343 341 342 343 341 341 341 342 343 344 342 338 339 341 340 344 341 339 340 340 344 345 345 345 345 345 343 345 346 346 345 343 343 343 343 342 341 340
347 346 345 345 344 343 344 343 343 341 342 342 342 343 344 344 342 340 340 337 342 342 340 340 342 343 343 343 343 344 344 344 343 344 345 344 343 342 342 342 341 340 341
347 346 345 345 344 342 341 345 342 343 344 344 345 344 342 343 343 341 340 339 340 339 339 340 339 342 343 343 342 342 342 343 343 343 343 342 342 342 341 340 338 339 340
347 343 343 344 344 343 343 342 343 341 340 339 339 343 345 344 343 343 340 341 341 338 338 338 339 342 342 341 340 340 342 342 342 342 342 341 341 339 339 338 339 340 341
344 343 341 341 341 336 336 338 337 339 341 341 339 339 341 343 343 343 341 341 341 338 337 337 338 341 341 340 338 339 339 340 339 339 339 339 339 339 338 337 338 339 339
346 344 345 342 338 342 334 337 339 341 341 340 341 341 338 336 341 343 343 342 341 341 338 336 337 338 339 338 337 338 338 338 339 340 339 338 336 335 335 336 337 338 339
344 343 343 343 344 345 345 346 341 339 339 336 336 338 339 339 342 342 342 342 343 341 338 335 336 337 337 336 336 336 338 339 338 337 336 336 334 335 336 336 337 338 337
346 345 345 345 345 343 343 343 343 342 342 341 339 340 342 343 343 343 343 343 344 342 336 334 335 336 336 337 335 335 335 337 336 335 334 332 334 335 334 334 335 337 336
345 344 343 342 343 343 342 341 341 341 342 341 341 342 342 341 343 342 343 343 344 344 339 333 334 335 335 336 334 333 332 331 330 329 329 329 331 332 334 334 334 334 333
346 345 344 342 342 343 342 342 342 341 341 342 341 341 341 341 343 343 343 343 343 343 342 334 332 333 334 334 331 330 328 327 326 327 327 327 327 327 328 328 329 328 328
346 343 345 343 341 340 341 341 341 340 338 339 340 338 337 339 341 340 342 342 341 340 337 334 332 332 333 333 330 330 328 327 325 325 325 325 325 325 325 325 325 325 325
346 344 344 342 341 340 340 341 340 339 336 337 339 338 337 339 338 333 339 342 340 338 334 331 330 330 331 332 331 329 328 328 326 324 323 323 324 324 323 323 323 323 322
345 344 344 342 341 341 340 340 340 337 337 337 338 338 338 336 331 335 340 342 341 339 333 331 329 330 330 331 331 330 328 325 323 323 321 321 321 322 322 321 321 321 320
345 345 345 342 342 342 341 340 338 336 336 337 337 338 338 335 334 334 340 341 340 339 338 336 331 330 330 331 331 330 328 327 326 325 322 321 321 320 319 318 317 317 316
345 344 344 343 342 342 342 341 339 334 332 335 336 336 336 336 337 333 336 339 339 337 337 335 335 334 333 332 332 331 330 328 328 327 324 322 323 322 322 319 317 314 311
344 344 344 344 343 344 343 341 339 334 330 334 334 335 335 335 336 336 334 334 333 333 335 335 335 334 333 332 331 330 329 328 328 327 325 324 324 324 324 323 320 318 314
329 343 344 345 344 343 343 340 339 336 332 332 333 333 335 335 333 333 335 334 334 333 333 333 332 333 333 331 330 329 329 328 328 326 327 325 325 324 322 323 323 321 320

GFSMA_925_thetae_081.txt.gz
Theta_e
347 349 348 348 348 348 346 345 345 343 342 341 338 342 347 346 345 345 347 345 342 342 342 341 338 335 334 334 333 335 336 333 339 337 341 340 335 335 336 332 331 331 333
347 349 348 348 348 347 345 344 344 346 346 343 341 346 347 348 347 346 347 346 345 344 343 344 344 342 341 339 337 336 338 336 334 342 343 342 340 335 337 340 342 337 332
348 348 349 349 348 347 347 344 346 348 348 348 347 347 345 346 346 348 348 347 345 346 345 345 345 344 343 343 343 342 340 339 336 335 335 339 341 337 337 341 342 342 340
348 348 348 347 348 348 348 348 347 347 347 347 347 347 346 347 347 347 347 347 346 346 346 345 346 346 344 345 343 343 344 343 343 341 339 339 343 343 340 338 337 337 340
347 348 347 347 348 347 348 348 348 349 348 347 347 347 346 347 348 347 348 347 347 347 346 346 346 346 345 345 345 342 342 342 342 342 342 341 341 341 341 341 340 339 337
349 348 347 347 346 346 346 347 348 348 348 347 346 346 346 346 347 347 348 348 348 347 347 347 347 347 347 346 346 344 344 343 341 341 342 342 342 342 342 341 340 340 339
346 345 346 346 347 346 344 345 345 346 346 347 347 345 345 344 344 345 344 345 345 345 346 345 346 346 347 347 346 342 343 344 344 340 340 341 342 342 342 341 341 341 341
348 347 347 346 346 346 342 342 346 345 346 344 344 342 339 341 343 344 344 344 345 345 344 344 346 346 346 346 343 344 344 345 345 343 345 342 342 342 342 341 341 341 342
348 348 347 347 346 344 343 342 343 344 344 344 345 342 338 340 337 344 342 344 344 344 344 345 345 346 344 344 342 345 346 345 345 345 348 342 343 342 342 341 341 342 342
347 346 346 348 347 345 342 343 341 339 341 343 343 344 342 340 338 339 342 342 345 344 343 340 340 341 344 345 346 346 345 345 345 345 343 344 345 344 342 342 342 342 342
346 345 346 345 347 346 343 340 342 343 342 341 341 341 342 343 341 336 337 337 341 342 340 339 341 343 343 343 343 343 343 343 343 344 343 343 344 342 343 343 342 341 340
346 346 346 345 346 344 342 342 341 343 341 341 341 341 342 342 342 340 338 338 338 338 339 337 339 340 342 342 342 343 342 342 343 343 343 344 343 342 342 341 341 339 340
346 346 345 344 345 345 342 342 343 344 342 343 343 344 344 342 342 343 342 340 340 338 338 339 339 340 341 341 340 342 342 342 342 342 342 342 341 342 341 340 338 339 342
346 345 343 342 344 344 344 343 342 342 342 341 341 337 341 344 344 343 343 340 341 339 338 338 338 339 341 340 338 339 340 340 340 340 340 340 340 339 338 338 338 340 340
345 345 344 342 340 339 335 337 339 338 338 340 339 341 340 341 343 343 342 341 340 341 339 337 338 339 340 339 337 338 337 338 339 339 339 339 339 338 337 337 338 339 340
346 345 344 344 342 340 342 335 338 340 340 341 340 340 340 341 338 338 341 342 341 341 340 337 337 338 339 338 337 338 337 338 339 338 337 336 335 334 335 336 337 338 339
346 344 343 343 343 344 343 344 343 342 340 338 336 334 334 336 337 339 339 341 341 341 338 335 336 337 337 337 336 336 337 337 337 336 335 335 334 335 335 336 337 338 337
346 345 344 344 344 344 343 342 341 340 340 341 341 340 340 341 341 340 340 342 340 340 339 334 334 335 336 337 335 334 335 334 334 333 333 332 334 333 333 334 334 337 336
345 345 343 343 342 343 343 342 340 341 339 339 340 340 340 341 341 341 342 342 342 342 340 336 333 334 335 336 333 331 332 331 329 329 329 329 331 333 334 333 334 333 333
346 345 344 343 342 341 341 341 341 339 339 339 339 339 340 339 339 341 341 341 341 340 340 338 334 333 334 333 333 329 327 326 326 328 327 327 327 328 329 330 330 330 329
345 345 344 344 343 340 339 339 340 340 339 336 336 338 338 337 339 338 337 339 339 339 337 333 332 331 332 331 330 329 328 327 327 325 325 325 325 325 325 325 326 326 325
346 346 344 343 343 341 340 339 339 340 338 337 336 338 337 337 335 331 335 339 340 338 334 333 331 331 331 332 331 330 329 325 324 325 323 323 323 324 324 323 323 323 322
339 336 340 343 343 343 340 340 339 339 338 337 337 337 337 336 335 333 336 341 340 339 338 337 334 332 331 332 332 330 330 328 327 326 324 322 322 322 322 322 321 321 320
334 342 341 340 342 342 341 340 339 336 335 334 335 336 336 336 335 335 335 339 338 338 336 334 334 334 333 332 333 332 331 329 327 327 325 322 322 321 321 320 319 318 317
331 332 331 329 335 342 342 341 339 338 335 333 334 335 336 335 335 335 333 336 336 337 336 334 333 334 333 332 331 331 329 328 327 326 325 323 323 322 323 323 322 319 317
328 330 333 330 333 339 342 342 341 338 334 330 333 334 335 335 334 335 335 334 333 332 334 335 334 333 333 332 331 330 330 328 328 327 327 323 324 324 323 324 325 323 319

GFSMA_925_thetae_084.txt.gz
Theta_e
343 344 347 347 347 349 348 349 348 343 347 344 339 338 339 344 345 341 345 346 345 341 341 342 336 333 333 335 340 338 343 336 334 341 336 338 336 334 334 331 334 340 331
344 345 349 348 348 347 347 345 345 345 343 342 341 338 342 346 346 346 345 346 345 343 342 343 343 341 339 338 335 334 340 343 337 338 340 339 340 335 336 336 338 335 331
348 347 348 348 348 347 347 346 344 345 346 347 346 341 344 346 346 346 346 347 346 344 343 343 344 344 343 343 342 341 338 338 341 338 337 342 341 341 337 335 339 342 342
348 348 347 348 348 348 348 347 345 345 346 347 347 346 346 346 346 346 347 346 346 346 345 345 344 345 345 344 344 344 343 342 341 341 339 337 336 339 340 337 336 339 341
348 348 347 347 347 347 348 347 347 347 347 346 346 346 345 346 346 347 347 347 346 346 346 346 346 345 345 345 345 344 344 343 343 343 343 342 341 340 341 342 341 340 338
347 348 347 348 347 346 346 347 347 347 347 347 347 346 346 346 345 346 347 347 347 347 347 347 347 346 346 346 345 345 345 344 343 342 342 342 342 342 341 342 341 340 340
347 348 347 347 346 347 345 345 345 345 346 345 346 345 346 345 344 344 344 345 346 346 346 346 346 346 346 346 347 347 346 345 344 344 342 343 341 341 341 342 342 341 341
347 346 346 346 345 346 346 344 344 345 345 345 345 341 344 341 343 343 343 344 343 344 344 345 345 344 344 346 346 346 346 344 342 344 344 344 342 342 341 342 342 341 341
348 348 347 346 346 346 345 342 341 343 345 344 343 342 342 346 338 341 342 343 344 344 344 343 343 344 345 345 344 344 343 344 345 345 345 344 344 344 342 342 342 341 341
347 348 346 347 347 347 345 344 341 340 343 343 342 343 341 340 344 344 342 341 343 344 344 344 344 342 342 343 344 345 345 344 343 344 344 344 342 343 343 342 342 341 342
344 344 346 345 345 346 346 345 343 342 341 341 341 341 343 342 340 338 343 340 339 343 343 342 338 340 342 342 342 342 342 342 342 343 343 342 343 344 344 344 342 342 342
343 345 345 344 345 345 346 344 342 340 341 341 341 340 340 341 341 340 340 339 339 339 341 341 339 337 338 340 341 341 342 342 342 342 343 342 342 343 342 343 342 341 340
343 344 344 344 344 344 344 343 341 341 342 342 341 341 341 341 341 342 341 341 342 340 339 338 338 338 340 341 341 341 342 342 342 342 342 343 343 342 342 341 341 339 340
343 344 343 341 342 344 344 343 342 342 341 340 341 341 341 337 342 343 342 341 342 340 338 339 339 339 338 341 339 339 339 341 341 341 341 341 341 341 341 339 338 340 341
342 344 344 343 340 341 341 338 340 342 342 341 339 340 340 339 338 340 342 342 341 342 340 339 338 338 339 339 339 337 337 338 339 339 339 339 339 339 338 338 338 340 339
340 345 345 344 342 339 336 334 333 335 337 337 338 340 339 339 340 339 341 342 341 340 341 339 338 338 339 339 338 337 338 338 338 338 337 337 337 337 336 336 337 339 340
342 345 344 343 343 341 341 343 341 342 342 339 339 339 336 334 336 338 340 339 340 339 340 337 337 337 338 338 337 337 337 337 338 336 336 335 334 334 335 336 337 338 339
343 345 344 342 343 343 343 342 341 340 341 340 340 339 339 338 339 340 340 338 338 339 337 337 335 337 337 337 336 335 336 336 336 335 334 334 334 333 335 335 337 338 336
345 345 344 344 344 342 343 343 341 340 340 340 339 340 340 340 340 340 339 339 339 339 338 336 334 335 335 336 333 332 333 332 332 332 331 331 333 332 333 334 337 337 335
345 345 345 344 342 341 342 342 341 340 340 339 339 338 338 339 340 337 340 340 340 341 336 336 334 334 334 334 334 331 329 328 328 328 328 328 330 332 332 332 332 333 332
347 346 344 344 343 343 341 340 340 340 340 339 338 337 338 338 337 337 339 338 335 337 337 335 333 332 333 331 330 330 328 327 326 326 326 326 327 327 329 330 331 330 330
345 344 344 344 343 343 341 339 339 339 340 339 336 336 337 337 337 336 331 332 336 337 336 334 332 332 332 332 331 330 328 326 327 326 325 325 325 325 325 325 326 326 326
345 344 343 344 343 342 342 341 340 339 339 338 336 336 337 337 335 334 333 338 340 338 336 335 334 333 332 332 332 330 329 328 327 328 326 323 324 324 324 324 323 323 323
331 334 342 342 343 342 342 343 341 339 339 338 337 336 336 336 336 334 334 339 337 337 337 335 333 334 333 333 333 332 331 330 328 328 326 324 323 322 323 322 322 321 321
333 335 341 336 338 342 341 342 340 338 338 337 335 335 335 336 335 334 334 336 336 336 335 334 332 333 333 332 331 332 330 328 327 326 325 323 323 323 323 323 323 321 319
335 336 337 333 335 337 331 340 341 337 337 336 333 334 335 335 335 335 333 333 333 332 332 334 333 333 332 331 330 331 331 329 328 327 328 325 325 325 326 325 325 325 322

GFSMA_925_thetae_087.txt.gz
Theta_e
349 349 349 348 350 350 351 351 349 349 348 346 344 344 344 344 345 347 346 345 346 345 341 341 341 339 338 339 344 343 340 343 341 336 343 338 339 342 337 335 333 335 343
349 347 350 350 350 351 351 350 351 349 348 348 347 347 346 345 347 349 347 347 346 345 343 341 343 343 339 336 335 338 339 342 343 338 339 342 337 338 335 336 337 332 336
345 348 347 347 350 350 351 351 350 350 349 349 348 346 345 346 349 350 350 349 349 347 345 342 342 344 344 343 343 342 339 336 336 340 337 338 338 339 341 337 337 340 341
344 347 349 350 347 347 346 351 349 348 349 350 350 349 346 346 349 350 350 349 350 349 349 345 344 344 344 344 344 343 343 343 342 339 340 340 337 339 340 341 340 336 338
346 348 350 349 346 347 349 347 348 350 349 348 348 350 350 349 349 349 350 350 348 349 349 349 346 345 345 344 344 344 344 344 344 343 343 342 342 340 338 338 340 341 339
348 347 347 348 346 350 347 350 350 348 349 349 349 348 345 347 349 349 349 349 350 350 350 351 351 349 347 346 345 345 344 344 344 344 343 342 342 342 342 341 341 341 341
347 347 340 343 346 347 346 345 347 346 348 348 346 349 349 349 348 348 348 348 349 350 351 349 351 351 351 347 346 346 346 345 345 345 344 343 342 342 342 342 341 342 342
345 346 345 345 346 346 346 344 345 345 345 345 348 348 348 345 346 346 347 348 348 348 348 349 350 350 350 350 348 344 345 346 346 346 344 342 343 344 344 342 341 341 341
347 347 346 346 346 346 348 346 345 343 343 346 347 345 350 346 345 346 347 346 348 348 349 350 350 349 349 349 347 347 345 345 344 344 343 344 344 344 344 343 342 342 342
347 346 347 347 346 346 347 349 346 343 339 341 343 344 343 345 344 344 346 346 345 347 348 349 348 347 346 346 345 344 344 344 344 344 344 344 344 343 344 345 343 342 342
346 344 345 345 345 345 345 346 346 343 339 340 341 344 346 346 345 344 345 342 344 345 346 346 345 344 340 341 344 344 341 342 341 341 342 342 343 343 342 343 343 342 342
348 345 343 345 344 344 345 345 345 343 341 341 341 341 343 344 345 345 345 344 344 343 345 345 343 341 338 343 343 341 341 342 342 342 342 343 343 341 342 344 344 342 342
348 348 347 344 344 344 344 345 344 342 341 340 340 340 342 343 344 343 345 345 346 343 343 343 341 340 340 338 344 341 341 341 342 342 342 342 343 342 342 342 342 342 341
347 348 346 347 343 343 344 344 343 342 341 340 339 339 339 339 341 339 341 343 343 343 344 343 340 339 339 343 342 339 342 340 341 341 341 341 342 342 342 341 341 340 340
347 347 348 347 343 344 344 344 344 344 342 342 342 343 343 343 342 341 337 339 342 344 342 339 339 339 339 340 341 341 341 338 339 339 339 340 340 340 340 339 338 341 341
346 346 347 348 346 343 343 341 341 344 344 344 345 344 344 342 344 343 342 340 341 341 342 339 339 339 338 338 339 338 338 338 339 339 338 338 338 338 338 338 339 340 339
346 345 348 347 347 344 340 338 338 339 341 342 342 342 344 344 342 343 343 341 341 340 342 338 338 338 338 339 338 338 337 337 338 337 336 335 335 335 335 336 337 339 339
346 346 348 347 347 346 345 345 346 344 345 345 343 343 342 340 339 340 343 344 343 342 342 341 337 334 336 337 338 337 336 337 337 336 335 335 334 335 336 336 338 339 338
349 346 347 347 347 347 347 347 346 345 344 344 343 343 343 343 343 343 343 343 343 342 340 338 338 334 335 336 335 334 334 335 335 334 333 334 333 333 334 336 338 338 336
350 348 347 347 347 347 346 345 346 345 344 343 343 342 342 343 340 339 342 343 343 342 342 341 339 335 335 334 334 331 330 331 331 330 330 332 332 332 333 335 337 336 335
351 349 347 347 347 346 345 345 345 345 344 343 342 341 341 340 340 339 340 341 343 340 339 338 335 334 333 331 330 329 328 327 327 328 328 328 330 332 332 332 334 333 331
350 348 347 347 346 345 343 342 343 343 344 343 343 341 340 337 338 337 337 335 338 338 339 339 337 336 334 333 331 330 328 326 328 326 328 327 328 328 330 330 331 331 330
351 349 349 348 346 346 343 342 341 341 342 342 343 342 340 339 338 338 335 333 335 337 338 339 338 338 338 334 332 330 330 330 331 329 328 330 325 328 327 326 326 327 326
349 349 349 348 347 346 343 342 341 341 342 342 341 341 340 340 337 338 338 339 337 336 336 336 337 338 338 337 334 333 331 330 329 327 327 331 328 328 327 326 324 324 323
347 348 345 343 343 345 344 342 342 342 343 341 341 340 340 340 338 335 337 338 338 338 336 335 333 333 333 333 333 332 330 328 326 326 327 326 326 327 326 324 323 322 322
343 341 341 338 337 338 336 337 341 342 342 341 340 339 335 338 336 335 336 338 339 338 337 334 333 332 332 332 332 332 330 330 331 329 327 327 327 328 331 328 326 324 321

GFSMA_925_thetae_093.txt.gz
Theta_e
350 351 348 348 350 348 348 346 344 343 344 346 345 346 345 346 345 345 349 348 345 345 345 343 340 342 341 338 333 335 341 340 337 337 334 334 342 340 344 337 337 337 336
352 352 348 350 350 349 349 349 345 346 345 346 346 345 344 345 346 346 345 351 348 345 344 344 342 342 344 343 340 337 337 340 341 335 338 339 333 339 340 339 342 337 336
349 350 348 348 349 351 349 349 348 345 346 345 345 345 344 344 344 345 345 346 349 348 347 345 343 343 343 344 343 343 342 340 339 340 338 339 336 335 341 338 335 340 338
353 352 349 347 351 352 352 351 351 349 350 346 345 344 345 345 346 346 346 347 348 349 348 350 346 344 344 343 343 344 344 343 343 343 343 341 338 339 337 337 336 339 338
351 352 351 349 352 353 353 352 350 350 348 348 349 349 347 345 345 344 345 346 348 347 350 350 349 349 346 344 344 344 344 344 344 343 343 344 343 341 341 341 340 339 338
350 351 349 349 350 352 350 352 351 351 352 349 350 348 348 349 348 346 345 347 349 348 348 350 350 350 350 346 345 345 345 344 344 344 343 344 344 343 343 343 342 342 340
349 351 350 350 354 349 351 352 352 354 353 352 351 350 350 351 350 348 347 347 346 348 348 349 351 351 352 350 350 349 348 347 346 346 345 344 344 344 344 343 343 342 341
351 351 351 352 352 350 346 347 353 352 352 350 351 350 358 348 348 348 348 348 349 348 350 349 349 351 350 351 351 350 350 349 348 345 345 345 344 344 344 344 343 343 342
351 351 352 351 350 351 344 352 348 350 350 349 350 349 356 350 349 347 349 348 346 346 346 347 349 350 350 353 352 352 350 349 349 345 344 345 345 345 345 345 344 342 343
351 351 351 351 351 350 349 349 351 350 349 348 348 348 348 347 356 355 348 348 348 349 349 350 349 349 353 353 351 350 349 347 344 342 343 344 344 344 344 344 344 344 344
351 352 353 352 353 351 349 349 349 349 350 350 349 349 348 349 349 349 355 347 349 349 347 348 347 349 351 350 350 350 348 347 342 339 340 341 341 341 342 342 343 344 343
351 352 352 350 351 352 352 351 348 348 350 350 349 349 347 347 347 350 350 347 346 348 346 347 348 347 347 349 349 347 346 344 340 340 341 341 342 342 342 343 343 342 343
349 350 351 351 350 351 350 349 350 349 350 349 350 349 347 346 344 345 348 351 353 347 347 348 347 346 347 347 347 346 346 344 342 340 341 341 342 342 343 343 342 342 343
350 349 353 352 351 349 349 350 350 351 348 349 348 347 346 346 342 343 344 345 349 349 348 349 348 349 348 347 346 346 344 344 342 340 341 341 341 342 343 342 341 341 343
348 351 351 348 348 349 349 350 348 349 350 349 348 347 345 345 342 340 343 339 344 351 351 346 349 348 347 346 345 345 346 345 341 339 340 340 341 341 342 342 342 342 342
350 350 349 348 350 349 349 350 347 346 348 349 349 348 347 343 343 341 340 343 345 347 351 345 346 345 342 342 343 341 343 344 339 339 339 339 340 340 340 341 341 340 340
352 352 350 350 351 351 350 349 347 346 347 347 347 348 348 348 347 346 347 345 347 347 348 346 345 345 344 343 343 343 342 342 339 338 338 338 338 338 338 338 339 341 341
352 352 351 349 349 348 349 347 348 345 345 346 346 346 346 347 348 347 346 346 347 346 347 346 346 344 344 343 342 341 340 341 340 337 336 336 335 335 336 336 339 340 340
352 352 351 349 348 348 349 347 347 347 346 346 346 346 346 346 346 345 344 344 344 345 346 345 345 344 341 341 338 339 338 338 337 337 336 335 334 335 335 335 337 340 340
353 353 352 349 349 348 347 348 348 348 348 346 345 346 344 344 345 344 346 347 347 347 346 346 345 343 342 341 338 336 335 334 334 335 335 334 333 334 336 337 338 340 339
352 352 352 350 349 348 346 347 346 347 347 347 346 345 345 344 344 344 344 344 344 345 343 343 345 344 343 340 338 335 334 333 332 333 333 334 333 333 334 336 338 337 336
352 352 353 352 351 348 346 346 347 347 345 346 347 346 344 344 343 342 338 339 344 345 343 343 342 341 342 340 337 336 332 329 329 331 332 334 333 335 333 337 336 336 334
353 353 355 354 352 350 348 347 346 346 345 345 345 344 344 343 344 344 339 337 338 338 338 342 341 342 342 343 338 333 331 330 331 332 332 330 330 332 332 334 335 334 333
352 351 352 353 354 352 350 349 347 347 347 345 345 344 344 344 344 343 343 342 340 339 335 334 340 342 343 344 340 335 332 331 333 334 331 332 331 333 334 335 332 333 333
349 348 350 352 353 354 351 348 347 347 347 347 345 345 346 346 345 343 342 343 343 342 341 340 341 340 339 339 341 336 333 331 327 330 331 334 332 332 334 334 332 330 330
346 346 347 350 352 354 353 348 347 346 344 344 345 346 346 345 345 344 343 342 343 343 341 339 339 335 333 335 338 337 333 332 330 328 329 330 332 332 331 332 332 327 327